GEFSSGP_850_meantemp_252.txt.gz
Temperature
14 15 15 16 19 20 21 21 20 20 20 19 19 20 22 22 22 21 17 17 16 16 16 16 16 16 16 16 16 16 16 16 16 16 16 16 16 16 16 16 15 15 15 15 15 15 15 15 15
14 14 15 17 19 20 21 21 20 20 20 18 18 19 20 21 18 17 16 16 16 16 16 16 16 16 16 16 16 16 16 16 16 16 16 16 16 16 15 15 15 15 15 15 15 15 15 15 15
13 14 15 18 19 20 21 20 20 20 18 18 19 19 19 19 16 16 16 16 15 15 15 16 16 16 16 16 16 16 16 16 16 16 16 16 15 15 15 15 15 15 15 15 15 15 15 15 15
13 14 15 17 18 19 20 20 19 19 18 17 18 19 17 16 16 16 16 16 15 15 15 16 15 15 15 16 16 16 16 16 16 16 15 15 15 15 15 15 15 15 15 15 15 15 15 15 15
13 15 17 17 18 19 18 18 17 19 19 18 18 19 18 15 16 16 16 15 15 15 15 15 15 15 15 15 16 16 16 16 15 15 15 15 15 15 15 15 15 15 15 15 15 15 15 15 15
13 15 17 18 18 18 18 16 17 18 18 17 17 19 17 15 15 16 15 15 15 14 14 15 15 15 15 15 15 15 15 15 15 15 15 15 15 15 15 15 15 15 15 15 15 15 15 15 15
14 15 17 18 18 18 17 16 16 18 18 17 17 18 17 14 15 15 14 14 14 14 14 14 14 14 15 15 15 15 15 15 15 15 15 15 15 15 15 15 15 15 15 15 15 15 15 15 14
12 15 16 16 17 17 17 15 15 16 17 15 15 17 16 14 14 14 14 14 14 14 14 14 14 14 14 14 15 15 15 15 15 15 15 15 14 14 14 14 14 14 14 14 14 14 14 14 14
11 14 15 16 16 16 15 15 15 14 15 14 14 15 14 14 14 13 13 13 13 13 13 14 14 14 14 14 14 14 14 14 14 14 14 14 14 14 14 14 14 14 14 14 14 14 14 14 14
11 13 14 15 15 15 14 15 14 14 15 14 13 13 13 13 13 13 13 13 13 13 13 13 13 13 14 14 14 14 14 14 14 14 14 14 14 14 14 14 14 14 14 14 14 14 14 14 13
11 12 13 13 12 13 13 13 13 14 15 14 13 13 12 12 12 12 12 13 13 13 13 13 13 13 13 13 13 13 13 13 13 13 14 14 13 13 13 13 13 13 13 13 13 13 13 13 13
10 11 11 11 10 11 12 12 12 13 13 12 12 12 12 12 12 12 12 12 12 12 12 13 13 13 13 13 13 13 13 13 13 13 13 13 13 13 13 13 13 13 13 13 13 13 13 13 13
10 10 10 9 9 10 10 11 11 11 11 11 11 11 11 11 11 11 11 12 12 12 12 12 12 12 13 13 13 13 13 13 13 13 13 13 13 13 13 13 13 13 13 13 13 13 13 13 13
9 9 9 9 9 9 10 10 10 10 10 10 10 10 10 10 10 11 11 11 11 12 12 12 12 12 12 12 12 13 12 13 13 13 13 13 13 13 13 13 13 13 12 12 12 12 12 12 12
8 9 9 9 9 9 10 10 10 9 9 10 10 10 10 10 10 10 10 11 11 11 11 12 12 12 12 12 12 12 12 12 12 12 12 12 12 12 13 12 12 12 12 12 12 12 12 12 12
8 8 8 9 9 9 9 10 10 9 9 9 9 9 9 9 9 9 10 10 10 10 11 11 11 11 11 12 12 12 12 12 12 12 12 12 12 12 12 12 12 12 12 12 12 12 12 12 12
7 8 8 8 8 8 8 9 9 8 8 9 9 9 9 9 9 9 9 9 10 10 10 11 11 11 11 11 11 11 11 11 11 11 11 12 12 12 12 12 12 12 12 11 11 11 11 11 11
7 7 7 8 8 8 7 8 8 7 7 8 8 8 8 8 8 8 8 9 9 9 10 10 10 10 10 10 10 11 11 11 11 11 11 11 11 11 11 11 11 11 11 11 11 11 11 11 11
7 7 7 8 8 7 7 7 7 7 7 7 8 8 8 8 8 8 8 8 8 9 9 9 10 10 10 10 10 10 10 11 11 11 11 11 11 11 11 11 11 11 11 11 11 11 11 11 11
6 6 6 7 7 7 7 7 7 7 7 7 7 7 7 7 7 7 7 8 8 8 9 9 9 9 9 9 10 10 10 10 10 10 10 10 11 11 11 11 11 11 11 11 10 10 10 10 10
5 5 6 6 6 6 6 6 7 6 6 5 6 6 6 6 6 6 7 7 7 8 8 8 8 9 9 9 9 9 9 10 10 10 10 10 10 10 11 10 10 11 11 10 10 10 10 10 10
4 5 5 5 5 6 6 6 7 6 6 6 5 5 5 5 5 5 6 6 7 7 7 8 8 8 8 9 9 9 9 9 9 9 10 10 10 10 10 10 10 10 10 10 10 10 10 10 10
4 4 4 5 5 5 5 5 6 6 5 5 5 5 4 4 4 4 5 6 6 6 7 7 8 8 8 8 8 8 9 9 9 9 9 9 9 10 10 10 10 10 10 10 10 10 10 10 10
3 4 4 4 4 4 5 5 5 5 5 5 4 3 3 3 3 3 4 5 5 6 6 7 7 7 8 8 8 8 8 8 9 9 9 9 9 9 9 9 9 9 10 9 9 9 9 9 9
3 3 4 4 4 4 5 4 4 3 3 3 3 2 1 1 2 2 3 4 4 5 6 6 7 7 7 7 7 8 8 8 8 8 9 9 9 9 9 9 9 9 9 9 9 9 9 9 9
2 2 3 3 4 4 4 4 3 2 1 1 1 0 0 0 1 1 2 3 4 4 5 5 6 6 7 7 7 7 7 8 8 8 8 8 8 9 9 9 9 9 9 9 9 9 9 9 9
1 1 1 2 3 3 3 3 2 1 1 0 -0 -1 -1 -1 -0 0 1 2 3 3 4 5 5 6 6 7 7 7 7 7 7 8 8 8 8 8 8 8 8 8 8 8 8 8 8 8 8
1 1 1 1 2 3 3 2 2 0 -0 -0 -1 -1 -1 -1 -1 -1 0 1 2 3 3 4 5 5 6 6 6 7 7 7 7 7 7 7 8 8 8 8 8 8 8 8 8 8 8 8 8
-0 -0 -0 0 1 2 2 2 -1 -1 -1 -1 -2 -2 -2 -2 -2 -2 -1 0 1 2 3 3 4 4 5 6 6 6 6 6 7 7 7 7 7 7 7 7 7 8 8 8 8 8 8 8 7
-1 -1 -1 -0 -0 0 1 0 -2 -2 -2 -2 -2 -3 -3 -3 -3 -2 -2 -1 0 1 2 3 3 4 4 5 5 5 6 6 6 6 6 7 7 7 7 7 7 7 7 7 7 7 7 7 7

GEFSSGP_850_meantemp_258.txt.gz
Temperature
15 15 15 16 16 17 18 20 22 22 23 23 23 24 23 22 21 19 17 17 17 17 17 17 16 16 16 16 16 16 16 16 16 16 16 16 16 16 16 15 15 16 16 16 16 15 15 15 15
15 15 15 16 16 17 18 20 21 22 23 22 22 22 22 21 19 18 17 17 16 17 17 16 16 16 16 16 16 16 16 16 16 16 16 16 15 15 15 15 15 15 15 15 15 15 15 15 15
14 14 16 16 17 18 19 21 21 22 22 22 22 21 21 20 18 17 17 16 16 16 16 16 16 16 16 16 16 16 16 16 16 15 15 15 15 15 15 15 15 15 15 15 15 15 15 15 15
13 14 16 16 17 19 20 21 21 21 21 21 21 20 19 18 17 17 17 16 15 15 15 16 16 15 15 16 16 16 16 16 15 15 15 15 15 15 15 15 15 15 15 15 15 15 15 15 15
13 15 15 15 17 19 20 21 21 21 20 20 20 20 18 17 17 17 16 16 15 15 15 15 15 15 15 15 15 15 15 15 15 15 15 15 15 15 15 15 15 15 15 15 15 15 15 15 15
14 15 15 15 17 19 20 21 20 20 20 20 19 19 17 16 17 16 16 15 15 15 15 15 15 15 15 15 15 15 15 15 15 15 15 15 15 15 15 15 15 15 15 15 15 15 15 15 15
14 14 15 16 17 18 19 20 20 19 19 19 19 18 16 15 16 15 15 15 14 14 14 14 14 15 15 15 15 15 15 15 15 15 15 14 15 15 15 14 14 15 15 15 15 15 15 15 15
13 14 15 16 17 17 19 19 19 19 18 18 18 17 15 15 15 15 15 14 14 14 14 14 14 14 14 14 14 14 14 14 14 14 14 14 14 14 14 14 14 15 15 15 15 15 15 15 14
12 12 13 15 16 16 17 17 18 17 17 17 16 16 15 14 14 14 14 14 14 14 14 14 14 14 14 14 14 14 14 14 14 14 14 14 14 14 14 14 14 14 14 14 14 14 14 14 14
12 11 13 15 15 15 16 16 16 17 16 16 15 14 14 13 13 13 13 13 13 13 13 13 14 14 13 13 14 14 13 13 13 13 13 13 13 13 14 14 14 14 14 14 14 14 14 14 13
12 11 13 14 14 14 14 15 15 15 14 14 14 13 13 12 12 12 12 12 13 13 13 13 13 13 13 13 13 13 13 13 13 13 13 13 13 13 13 13 13 13 13 13 13 13 13 13 13
11 12 12 12 12 13 13 13 13 13 13 13 13 13 12 12 11 11 12 12 12 12 12 12 12 13 13 13 13 13 13 13 13 13 13 13 13 13 13 13 13 13 13 13 13 13 13 13 13
10 11 11 11 11 11 12 12 12 12 12 13 12 12 12 11 11 11 11 11 11 12 12 12 12 12 12 12 13 13 13 13 13 12 12 12 13 13 13 13 13 13 13 13 13 13 12 12 13
10 10 10 10 10 11 11 11 11 11 12 12 12 11 11 11 11 10 11 11 11 11 11 11 11 12 12 12 12 12 12 12 12 12 12 12 12 13 12 12 12 12 12 12 12 12 12 12 12
9 9 9 10 10 10 10 9 10 11 11 11 11 10 10 10 10 10 10 10 10 11 11 11 11 11 11 11 12 12 12 12 12 12 12 12 12 12 12 12 12 12 12 12 12 12 12 12 12
9 8 8 9 10 10 9 8 9 10 10 10 10 10 10 9 9 9 10 10 10 10 10 11 11 11 11 11 11 11 12 12 12 12 12 12 12 12 12 12 12 12 12 12 12 12 12 12 12
7 7 7 8 9 9 9 8 9 10 10 9 9 9 9 9 9 9 9 9 10 10 10 10 10 10 11 11 11 11 11 11 11 12 12 12 12 11 12 12 12 12 12 12 12 11 12 12 11
6 7 7 8 9 9 8 7 8 9 9 9 9 9 9 8 8 9 9 9 9 9 10 10 10 10 10 10 10 11 11 11 11 11 11 11 11 11 11 11 11 12 12 12 11 11 11 11 11
6 7 7 7 9 8 7 7 8 8 8 8 8 8 8 8 8 8 8 8 8 9 9 9 10 10 10 10 10 10 10 10 10 11 11 11 11 11 11 11 11 11 11 11 11 11 11 11 11
6 6 6 7 8 7 7 7 7 7 7 7 7 6 7 7 7 7 7 8 8 8 8 9 9 9 9 10 10 10 10 10 10 10 10 11 11 11 11 11 11 11 11 11 11 11 11 11 11
5 5 5 5 6 7 6 6 6 7 6 6 6 6 6 6 6 6 6 7 7 7 8 8 8 9 9 9 9 9 9 9 9 9 10 10 10 11 10 11 11 11 11 11 11 11 11 11 10
4 5 5 5 4 4 6 4 5 5 5 5 5 5 5 5 5 5 5 6 6 7 7 7 8 8 8 8 9 9 9 9 9 9 9 9 10 10 10 10 10 10 10 10 10 11 10 11 10
4 5 5 5 4 4 4 4 3 5 4 4 4 4 4 4 4 4 4 5 5 6 6 7 7 7 8 8 8 8 8 9 9 9 9 9 9 9 9 10 10 10 10 10 10 10 10 10 10
4 4 4 4 4 3 3 3 3 3 3 3 3 3 3 3 3 3 4 4 5 5 5 6 7 7 7 7 8 8 8 8 8 8 8 8 8 9 9 9 9 10 10 10 10 10 10 10 10
3 2 2 2 2 3 4 3 2 2 2 3 2 2 2 2 2 2 3 3 4 4 5 5 6 6 6 7 7 7 7 7 8 8 8 8 8 8 8 9 9 9 9 9 9 10 10 10 10
1 1 1 1 2 2 3 2 1 2 2 1 1 1 1 1 1 1 2 2 3 3 4 4 5 5 6 6 6 7 7 7 7 8 8 8 8 8 8 8 9 9 9 9 9 9 9 9 9
1 1 1 1 1 1 2 2 1 1 1 0 0 -0 -0 -0 -0 0 1 1 2 2 3 4 4 5 5 5 6 6 6 6 7 7 7 7 8 8 8 8 8 8 8 9 9 9 9 9 9
1 1 0 -0 0 1 1 1 -0 -1 -1 -1 -1 -1 -2 -1 -1 -1 -0 0 1 2 2 3 3 4 5 5 5 5 6 6 6 6 7 7 7 7 8 8 8 8 8 8 8 8 8 8 8
-0 -0 -1 -1 -0 -0 0 -1 -1 -1 -2 -2 -2 -2 -2 -2 -2 -1 -1 -1 -0 1 2 2 3 3 4 4 5 5 5 5 6 6 6 7 7 7 7 7 8 8 8 8 8 8 8 8 8
-1 -1 -2 -2 -2 -1 -1 -2 -1 -2 -2 -2 -2 -2 -3 -3 -3 -2 -2 -2 -1 -0 1 2 2 3 3 4 4 5 5 5 5 6 6 6 6 7 7 7 7 7 8 8 8 8 8 8 8

GEFSSGP_850_meantemp_264.txt.gz
Temperature
14 15 15 16 13 11 12 14 15 17 17 19 19 18 17 17 17 17 17 17 17 16 16 16 16 16 16 16 16 16 16 16 16 16 16 16 16 16 16 16 15 15 15 15 15 15 15 15 15
14 15 15 15 11 12 12 13 15 16 18 19 19 18 17 16 16 16 16 16 16 16 16 16 16 16 16 16 16 16 16 16 16 16 16 16 16 16 16 16 15 15 15 15 15 15 15 15 15
14 14 14 10 10 12 14 14 15 17 18 18 18 17 17 16 16 16 16 16 16 16 16 16 16 16 16 16 16 16 16 16 16 16 15 15 16 16 16 15 15 15 15 15 15 15 15 15 14
14 14 13 10 11 12 13 15 15 16 17 18 17 16 16 15 16 16 16 16 16 15 15 15 15 16 16 16 16 16 16 16 15 15 15 15 15 15 15 15 15 15 15 15 15 15 15 14 14
13 13 10 10 11 12 13 15 16 15 15 16 16 15 15 15 15 16 16 16 15 15 15 15 15 15 15 16 16 15 15 15 15 15 15 15 15 15 15 15 15 15 15 15 15 15 15 14 14
12 10 9 10 11 12 13 15 15 14 14 15 15 14 14 14 15 15 15 15 15 15 15 15 15 15 15 15 15 15 15 15 15 15 15 15 15 15 15 15 15 15 15 15 15 14 14 14 14
11 8 9 10 11 12 13 14 14 13 13 14 15 13 13 14 14 14 14 15 14 14 14 14 14 14 15 15 15 15 15 15 14 15 15 15 15 15 15 15 15 15 15 15 14 14 14 14 14
11 8 9 9 10 11 12 13 14 13 13 13 14 12 12 12 13 13 14 14 14 14 14 14 14 14 14 14 14 14 14 14 14 14 14 14 14 14 14 14 14 15 15 15 14 14 14 14 14
11 8 8 9 10 10 12 12 12 13 13 12 12 12 12 12 12 13 13 13 13 13 13 13 13 14 14 14 14 14 14 14 14 14 14 14 14 14 14 14 14 14 14 14 14 14 14 14 14
9 7 8 10 10 10 11 11 11 12 11 11 11 12 12 12 12 12 12 12 12 12 13 13 13 13 13 13 13 13 13 13 13 14 14 14 14 14 14 14 14 14 14 14 14 14 14 13 13
8 7 8 9 10 10 10 10 11 10 9 10 10 10 11 11 11 11 11 11 11 12 12 12 12 13 13 13 13 13 13 13 13 13 13 13 13 13 13 13 14 13 13 14 14 13 13 13 13
7 7 8 9 9 9 9 9 9 9 9 10 10 10 10 10 10 10 10 10 11 11 11 11 12 12 12 13 13 13 13 13 13 13 13 13 13 13 13 13 13 13 13 13 13 13 13 13 13
6 7 7 8 8 8 9 8 8 8 9 10 10 10 10 10 9 10 10 10 10 10 11 11 11 11 12 12 12 12 13 13 13 13 12 13 13 13 13 13 13 13 13 13 13 13 13 13 13
6 6 6 7 8 8 7 7 8 7 8 9 9 9 9 9 9 9 9 10 10 10 10 10 11 11 11 12 12 12 12 12 12 12 12 12 12 13 13 13 13 12 12 13 13 12 12 12 12
6 5 5 6 7 7 7 6 6 7 8 7 7 8 8 8 8 9 9 9 9 10 10 10 10 10 11 11 12 12 12 12 12 12 12 12 12 12 12 12 12 12 12 12 12 12 12 12 12
5 4 4 5 6 7 6 5 5 7 7 6 6 7 7 7 7 8 8 9 9 9 10 10 10 10 10 11 11 11 11 11 11 11 12 12 12 12 12 12 12 12 12 12 12 12 12 12 12
3 3 3 5 5 6 5 4 5 6 6 5 5 5 6 6 7 7 7 8 8 9 9 9 9 9 10 10 11 11 11 11 11 11 11 11 11 11 12 12 12 12 12 12 11 11 11 11 11
2 2 3 4 5 4 4 3 4 5 4 4 4 5 5 5 6 6 7 7 8 8 8 9 9 9 9 9 10 10 10 10 10 11 11 11 11 11 11 11 11 11 11 11 11 11 11 11 11
3 3 2 3 5 4 3 3 3 3 3 3 3 3 4 4 5 6 6 7 7 7 8 8 8 8 9 9 9 9 10 10 10 10 10 10 11 11 11 11 11 11 11 11 11 11 11 11 11
3 2 2 3 4 4 3 2 3 3 2 3 3 3 3 4 5 5 6 6 6 7 7 7 7 8 8 8 9 9 9 10 10 10 10 10 10 10 10 11 11 11 11 11 11 11 11 11 11
2 2 2 2 3 3 3 2 2 2 3 2 2 3 3 3 4 4 5 5 6 6 6 6 7 7 7 8 8 8 9 9 9 9 9 9 10 10 10 10 10 10 10 11 11 11 11 11 11
1 2 2 3 2 1 2 1 1 1 1 1 1 2 2 2 3 4 4 5 5 5 5 6 6 6 7 7 7 8 8 8 9 9 9 9 9 9 9 10 10 10 10 10 10 10 11 11 11
1 2 2 2 1 1 1 0 0 1 1 0 1 1 1 2 2 3 3 4 4 5 5 5 5 6 6 6 7 7 8 8 8 8 9 9 9 9 9 9 9 10 10 10 10 10 10 10 11
1 1 1 1 0 0 0 0 -0 -1 -1 -1 -1 -0 0 1 2 2 3 4 4 4 5 5 5 5 6 6 6 6 7 7 8 8 8 8 8 8 9 9 9 9 9 9 10 10 10 10 10
-0 -1 -1 -1 -1 -0 0 -0 -1 -2 -1 -1 -1 -1 -1 0 1 1 2 3 3 4 4 4 4 5 5 5 6 6 6 7 7 8 8 8 8 8 8 9 9 9 9 9 9 9 9 9 10
-1 -1 -1 -1 -1 -1 -1 -1 -2 -2 -1 -1 -2 -2 -1 -1 -0 0 1 2 2 3 3 3 4 4 4 5 5 5 6 6 7 7 7 8 8 8 8 8 8 8 8 9 9 9 9 9 9
-1 -2 -2 -3 -2 -2 -2 -2 -2 -2 -2 -2 -2 -2 -2 -2 -1 -1 0 1 1 2 2 3 3 3 4 4 4 5 5 6 6 7 7 7 7 7 8 8 8 8 8 8 8 8 9 9 9
-1 -2 -3 -3 -2 -2 -2 -3 -3 -3 -3 -3 -3 -3 -3 -3 -2 -2 -1 -0 0 1 1 2 2 3 3 4 4 4 5 5 6 6 6 6 7 7 7 7 8 8 8 8 8 8 8 8 8
-3 -3 -4 -4 -3 -3 -3 -3 -3 -4 -4 -4 -3 -3 -3 -3 -3 -2 -2 -1 -1 0 1 1 2 2 3 3 3 4 4 5 5 6 6 6 6 6 7 7 7 7 7 7 8 8 8 7 8
-3 -4 -5 -4 -4 -5 -4 -4 -3 -4 -4 -4 -4 -3 -4 -4 -3 -3 -2 -2 -1 -0 -0 0 1 1 2 2 3 3 4 4 5 5 5 6 6 6 6 6 6 7 7 7 7 7 7 7 7

GEFSSGP_850_meantemp_270.txt.gz
Temperature
14 15 15 16 13 10 12 12 12 13 13 15 15 15 14 14 15 15 15 16 16 16 15 15 15 15 15 15 15 15 15 16 16 16 16 15 15 15 15 15 15 15 15 15 15 15 15 15 15
14 14 15 15 11 11 12 11 12 13 14 15 15 15 14 14 14 14 15 15 15 15 15 15 15 15 15 15 15 15 15 15 16 16 15 15 15 15 15 15 14 15 15 15 15 15 15 15 15
14 14 14 9 9 11 13 11 11 12 14 14 14 14 14 13 13 14 14 15 15 15 15 15 15 15 15 15 15 15 15 15 15 15 15 15 15 15 15 15 15 15 15 15 15 15 15 15 15
13 14 12 9 10 10 11 11 11 12 13 13 13 13 13 13 13 13 14 14 15 15 15 15 15 15 15 15 15 15 15 15 15 15 15 15 15 15 15 15 15 15 15 15 15 15 15 15 15
13 13 9 8 10 10 10 10 11 11 11 12 12 12 12 12 13 13 14 14 14 14 14 14 14 14 15 15 15 15 15 15 15 15 15 15 15 15 15 15 15 15 15 14 14 14 14 14 15
12 9 8 9 10 9 9 11 11 10 11 11 11 11 11 12 13 13 13 13 14 14 14 14 14 14 14 14 14 14 14 15 15 15 15 15 15 15 15 15 14 14 14 14 14 14 14 14 14
10 7 8 8 9 9 10 10 10 10 9 10 11 10 11 12 12 12 12 12 13 13 13 13 13 14 14 14 14 14 14 14 14 14 14 14 14 14 14 14 14 14 14 14 14 14 14 14 14
10 7 7 7 8 9 9 10 10 10 10 10 11 10 10 11 11 11 11 12 12 12 13 13 13 13 13 14 14 14 14 14 14 14 14 14 14 14 14 14 14 14 14 14 14 14 14 14 14
9 6 7 7 8 8 9 9 9 10 9 9 9 9 10 10 11 11 11 11 12 12 12 12 12 13 13 13 13 13 13 13 14 14 14 14 14 14 14 14 14 14 14 14 14 14 13 13 13
7 6 7 7 7 7 7 7 8 8 7 8 8 9 9 10 10 10 10 10 11 11 11 12 12 12 12 12 12 13 13 13 13 13 13 13 13 13 14 14 14 14 14 14 13 13 13 13 13
6 5 6 7 7 7 6 6 7 7 6 7 7 7 8 9 9 9 9 10 10 10 10 11 11 12 12 12 12 12 12 12 13 13 13 13 13 13 13 13 13 13 13 13 13 13 13 13 13
4 5 5 6 6 6 6 6 6 5 6 7 7 7 8 8 8 8 9 9 9 10 10 10 11 11 11 11 12 12 12 12 12 12 12 13 13 13 13 13 13 13 13 13 13 13 13 13 13
4 4 5 5 5 5 5 5 5 5 6 6 7 7 7 7 7 8 8 8 9 9 10 10 10 10 11 11 11 11 12 12 12 12 12 12 12 12 12 12 12 12 12 12 12 12 12 12 12
4 4 4 4 5 4 4 4 4 4 5 5 6 6 6 7 7 7 8 8 8 8 9 9 9 10 10 10 11 11 11 11 11 11 12 12 12 12 12 12 12 12 12 12 12 12 12 12 12
4 3 3 4 4 4 4 3 3 4 4 4 4 5 5 6 6 6 7 7 7 8 8 8 9 9 9 10 10 10 11 11 11 11 11 11 11 12 12 12 12 12 12 12 12 12 12 12 12
3 2 2 3 3 4 4 3 3 3 3 3 3 4 4 5 5 6 6 7 7 7 8 8 8 8 9 9 10 10 10 10 10 10 11 11 11 11 11 11 11 11 11 11 11 11 11 11 11
2 2 2 3 3 3 2 2 2 3 3 2 2 3 4 4 5 5 6 6 7 7 7 7 8 8 8 8 9 9 10 10 10 10 10 10 10 11 11 11 11 11 11 11 11 11 11 11 11
1 1 1 2 2 2 1 1 1 2 2 2 2 2 3 4 4 4 5 6 6 6 6 7 7 7 8 8 8 9 9 9 9 9 10 10 10 10 10 11 11 11 11 11 11 11 11 11 11
1 1 1 1 2 2 1 1 1 1 1 1 1 1 2 3 3 4 5 5 6 6 6 6 7 7 7 7 8 8 8 9 9 9 9 9 10 10 10 10 10 10 10 10 10 10 10 10 10
1 0 0 1 2 2 0 0 0 1 0 0 0 1 1 2 3 3 4 4 5 5 5 6 6 6 6 7 7 7 8 8 8 8 9 9 9 9 10 10 10 10 10 10 10 10 10 10 10
1 -0 -0 0 1 1 0 0 -0 -0 0 0 0 0 0 1 2 2 3 4 4 4 5 5 5 5 6 6 6 7 7 8 8 8 8 8 9 9 9 9 10 10 10 10 10 10 10 10 10
0 1 1 1 -0 -1 -0 -0 -0 -1 -1 -1 -1 -1 -0 0 1 1 2 3 3 4 4 5 5 5 5 5 6 6 7 7 7 7 8 8 8 8 9 9 9 9 9 10 10 10 10 10 10
-0 0 0 0 -1 -1 -1 -1 -1 -2 -2 -2 -1 -1 -1 -0 0 1 1 2 3 3 4 4 4 4 4 5 5 5 6 6 7 7 7 8 8 8 8 8 9 9 9 9 9 9 9 9 9
-0 -1 -1 -1 -2 -1 -2 -2 -2 -3 -2 -2 -2 -1 -1 -1 -0 0 1 2 2 3 3 4 4 4 4 4 4 5 5 6 6 6 7 7 7 7 8 8 8 9 9 9 9 9 9 9 9
-2 -2 -2 -2 -2 -1 -2 -2 -2 -3 -3 -3 -2 -2 -1 -1 -1 -0 0 1 2 2 3 3 3 4 4 4 4 4 4 5 5 6 6 6 7 7 7 7 8 8 8 8 9 9 9 9 9
-3 -2 -2 -2 -1 -2 -2 -2 -3 -3 -3 -3 -2 -2 -2 -2 -2 -1 -1 0 1 1 2 2 3 3 3 3 4 4 4 4 5 5 5 6 6 7 7 7 7 8 8 8 8 8 8 8 8
-3 -4 -3 -4 -4 -3 -3 -4 -4 -3 -3 -3 -3 -2 -2 -2 -2 -2 -1 -0 -0 1 1 1 2 2 3 3 3 3 3 4 4 4 5 5 6 6 6 7 7 7 7 7 8 8 8 8 8
-3 -4 -5 -4 -3 -2 -3 -4 -4 -4 -4 -4 -4 -3 -3 -3 -3 -2 -2 -1 -1 -0 0 1 1 2 2 2 3 3 3 3 3 4 4 5 5 5 6 6 6 6 7 7 7 7 7 7 8
-4 -5 -5 -5 -5 -4 -3 -3 -4 -5 -4 -5 -4 -3 -3 -3 -3 -3 -2 -1 -1 -0 -0 0 1 1 2 2 2 2 3 3 3 3 4 4 5 5 5 6 6 6 6 6 6 7 7 7 7
-5 -6 -6 -5 -5 -6 -5 -4 -4 -5 -5 -4 -4 -4 -4 -4 -3 -3 -3 -2 -2 -1 -0 -0 0 1 1 1 1 2 2 2 3 3 3 4 4 4 5 5 5 5 5 6 6 6 6 6 7

GEFSSGP_850_meantemp_276.txt.gz
Temperature
15 16 16 16 19 20 19 19 19 18 18 17 16 17 18 18 18 18 14 14 14 14 14 14 14 15 15 15 15 15 15 15 15 15 15 15 15 15 15 15 15 15 15 15 15 15 15 15 15
15 15 16 17 20 20 19 19 18 17 17 15 15 16 17 16 14 13 13 13 13 14 14 14 14 14 14 15 15 15 15 15 15 15 15 15 15 15 15 15 15 15 15 15 15 15 15 15 15
14 15 15 18 19 20 19 18 17 16 15 15 15 15 15 15 13 12 13 13 13 13 13 14 14 14 14 14 15 15 15 15 15 15 15 15 15 15 14 15 15 15 15 15 15 15 15 15 15
14 14 15 18 17 17 17 17 16 16 15 14 15 15 13 12 12 12 13 13 13 13 13 14 14 14 14 14 14 14 15 15 15 15 15 15 15 14 14 14 14 15 15 15 15 15 15 15 15
13 15 17 16 16 16 16 15 14 16 15 14 15 15 13 11 12 12 13 13 13 12 13 13 13 14 14 14 14 14 14 14 15 15 15 15 14 14 14 14 14 14 14 15 15 14 14 14 14
13 15 17 17 16 15 15 13 14 15 15 14 14 14 13 11 11 12 12 12 12 12 12 13 13 13 13 13 14 14 14 14 14 14 14 14 14 14 14 14 14 14 14 14 14 14 14 14 14
14 15 16 16 15 15 14 12 13 14 14 12 12 14 12 11 11 11 11 11 11 11 12 12 12 13 13 13 13 13 13 14 14 14 14 14 14 14 14 14 14 14 14 14 14 14 14 14 14
11 14 14 14 14 14 12 11 10 11 12 10 10 12 11 10 10 10 10 10 11 11 11 12 12 12 12 12 13 13 13 13 13 14 14 14 14 14 14 14 14 14 14 14 14 14 14 14 14
10 13 13 13 13 12 10 10 9 9 9 9 9 9 8 9 9 10 10 10 10 11 11 11 11 11 12 12 12 12 13 13 13 13 13 13 13 13 13 13 13 13 13 13 13 13 13 13 13
10 12 11 11 11 10 9 9 9 9 9 8 8 8 8 8 9 9 9 10 10 10 10 11 11 11 11 11 11 12 12 12 12 12 12 12 13 13 13 13 13 13 13 13 13 13 13 13 13
9 9 9 8 8 8 8 8 7 9 9 8 7 6 7 7 8 8 8 9 9 9 10 10 10 10 11 11 11 11 11 11 12 12 12 12 12 12 12 12 12 12 12 12 12 12 12 12 13
8 7 7 7 6 6 7 7 7 6 7 6 5 5 6 6 7 7 7 8 8 9 9 10 10 10 10 10 10 11 11 11 11 11 11 12 12 12 12 12 12 12 12 12 12 12 12 12 12
7 6 5 5 5 5 5 5 6 5 5 5 5 5 5 5 6 6 7 7 7 8 9 9 9 9 9 10 10 10 10 11 11 11 11 11 11 12 12 12 12 12 12 12 12 12 12 12 12
6 5 5 5 5 5 5 5 5 5 4 4 4 4 4 5 5 6 6 7 7 7 8 8 9 9 9 9 9 10 10 10 10 11 11 11 11 11 11 11 12 12 12 12 11 11 12 12 12
5 6 6 5 5 5 5 6 5 4 4 4 4 4 4 4 5 5 5 6 6 7 7 8 8 8 8 9 9 9 10 10 10 10 10 10 11 11 11 11 11 11 11 11 11 11 11 11 11
6 7 7 6 5 5 6 7 6 4 4 4 4 4 4 4 4 4 5 5 6 6 6 7 7 8 8 8 8 9 9 9 10 10 10 10 10 10 10 11 11 11 11 11 11 11 11 11 11
7 7 7 6 5 5 6 6 6 4 4 4 4 3 3 3 4 4 4 5 5 6 6 6 7 7 7 7 8 8 8 9 9 9 9 10 10 10 10 10 10 10 10 10 11 11 11 11 11
7 7 6 6 5 5 5 5 5 4 3 3 3 3 3 3 3 3 4 4 5 5 5 6 6 6 7 7 7 7 8 8 8 8 9 9 9 9 9 10 10 10 10 10 10 10 10 10 10
5 5 5 5 4 4 4 4 4 3 3 3 2 2 2 2 2 3 3 4 4 5 5 5 6 6 6 6 7 7 7 7 8 8 8 8 9 9 9 9 9 9 9 10 10 10 10 10 10
4 4 5 4 4 4 4 4 4 3 2 2 1 1 1 1 2 2 3 3 4 4 4 5 5 5 6 6 6 6 6 7 7 7 7 8 8 8 8 9 9 9 9 9 9 9 9 9 9
4 4 4 4 3 3 3 4 4 3 2 1 1 1 1 1 1 1 2 2 3 3 4 4 4 5 5 5 5 6 6 6 6 6 7 7 8 8 8 8 8 9 9 9 9 9 9 9 9
4 3 3 3 3 4 3 5 5 3 2 2 1 0 0 0 0 1 1 2 2 2 3 3 4 4 5 5 5 5 5 5 6 6 6 7 7 7 7 8 8 8 8 8 9 9 9 9 9
2 2 2 3 3 3 3 3 5 2 2 2 1 0 0 -0 0 0 1 1 1 2 2 3 3 4 4 4 4 4 5 5 5 5 6 6 6 7 7 7 7 8 8 8 8 8 8 9 9
1 2 3 3 3 3 3 3 4 3 2 2 1 0 -0 -1 -0 -0 0 1 1 1 2 2 3 3 3 4 4 4 4 4 4 5 5 5 6 6 6 7 7 7 8 8 8 8 8 8 8
2 3 4 4 4 4 2 2 3 2 0 0 -0 -1 -1 -1 -1 -0 -0 0 0 1 1 1 2 2 3 3 3 3 3 3 4 4 4 4 5 5 6 6 6 7 7 7 8 8 8 8 8
1 2 3 4 5 5 2 2 3 0 -1 -2 -2 -2 -2 -1 -1 -1 -1 -1 -0 0 0 1 1 2 2 2 3 3 3 3 3 3 3 4 4 5 5 6 6 6 7 7 7 7 7 7 8
1 1 0 1 1 2 3 2 1 0 -1 -1 -2 -2 -2 -2 -2 -2 -1 -1 -1 -0 -0 0 1 1 1 2 2 2 3 3 3 3 3 3 4 4 5 5 5 6 6 6 6 7 7 7 7
-0 -0 0 1 2 3 3 3 2 0 -0 -1 -1 -2 -2 -3 -2 -2 -2 -2 -1 -1 -0 -0 0 1 1 1 2 2 2 2 2 3 3 3 3 4 4 4 5 5 6 6 6 6 7 7 7
-1 -1 -1 0 0 2 3 3 1 -0 -1 -1 -2 -2 -3 -3 -3 -3 -2 -2 -2 -1 -1 -1 -0 0 0 1 1 2 2 2 2 2 2 2 3 3 4 4 4 4 5 5 6 6 6 6 6
-2 -2 -1 0 -0 -1 1 2 -0 -1 -2 -2 -2 -3 -3 -3 -3 -3 -3 -2 -2 -2 -1 -1 -1 -1 -0 0 0 1 1 1 2 2 2 2 2 3 3 3 4 4 4 5 5 5 6 6 6

GEFSSGP_850_meantemp_282.txt.gz
Temperature
16 17 17 17 17 17 18 19 20 20 20 20 20 20 19 18 17 15 14 14 14 14 14 14 14 14 14 14 15 15 15 15 15 15 15 15 15 15 15 15 15 15 15 15 15 15 15 15 15
16 16 17 17 17 17 18 19 19 19 19 19 19 19 18 16 15 14 13 13 13 14 14 14 14 14 14 14 14 14 15 15 15 15 15 15 15 15 15 15 15 15 15 15 15 15 15 15 15
16 16 16 17 17 17 18 19 19 19 19 19 18 17 16 15 14 13 13 13 13 13 14 14 14 14 14 14 14 14 14 14 14 14 14 14 14 14 14 15 15 15 15 15 15 15 15 15 15
15 16 17 16 16 17 18 18 18 18 18 18 17 16 14 13 12 12 13 13 13 13 13 13 13 14 14 14 14 14 14 14 14 14 14 14 14 14 14 14 14 15 14 14 14 15 15 15 14
15 16 16 16 16 17 17 17 18 18 17 17 17 16 13 12 12 13 13 13 12 12 13 13 13 13 13 13 13 14 14 14 14 14 14 14 14 14 14 14 14 14 14 14 14 14 14 14 14
15 16 16 15 16 16 16 16 16 16 16 15 15 15 12 12 12 12 12 12 12 12 12 13 13 13 13 13 13 13 13 13 13 13 13 14 14 14 14 14 14 14 14 14 14 14 14 14 14
15 15 15 16 16 15 15 15 15 15 14 13 14 14 12 11 11 11 12 12 12 12 12 12 12 12 12 13 13 13 13 13 13 13 13 13 13 13 13 14 14 14 14 14 14 14 14 14 14
13 14 15 15 15 14 14 14 13 13 12 12 12 12 10 10 10 10 11 11 11 11 12 12 12 12 12 12 12 12 12 12 12 13 13 13 13 13 13 13 13 13 13 14 14 14 14 14 14
13 13 13 14 14 13 12 12 12 11 11 10 10 9 9 9 9 10 10 11 11 11 11 11 11 11 11 12 12 12 12 12 12 12 12 12 12 12 13 13 13 13 13 13 13 13 13 13 13
12 11 11 12 12 11 11 10 10 10 10 10 9 9 8 9 9 9 9 10 10 10 10 11 11 11 11 11 11 11 11 12 12 12 12 12 12 12 12 12 12 12 13 13 13 13 13 13 13
11 10 10 10 10 10 9 9 9 9 9 9 8 7 7 8 8 8 8 8 9 9 9 10 10 10 11 11 11 11 11 11 11 11 11 11 11 12 12 12 12 12 12 12 12 12 12 12 12
10 9 9 9 8 9 8 8 8 7 8 8 7 7 7 7 7 7 8 8 8 8 9 9 9 10 10 10 10 10 10 10 10 11 11 11 11 11 11 12 11 12 12 12 12 12 12 12 12
9 8 8 7 7 7 7 7 7 7 7 7 7 6 6 6 6 7 7 7 7 8 8 9 9 9 9 9 10 10 10 10 10 10 10 10 11 11 11 11 11 11 11 11 11 11 11 11 12
8 8 7 7 7 7 7 6 6 6 6 6 6 6 6 6 6 6 6 7 7 7 8 8 8 8 9 9 9 9 9 9 9 10 10 10 10 10 10 10 10 10 11 11 11 11 11 11 11
7 7 7 7 7 7 6 6 6 6 6 6 6 6 5 5 5 5 6 6 6 6 7 7 8 8 8 8 8 9 9 9 9 9 9 9 9 10 10 10 10 10 10 10 10 11 11 11 11
8 7 7 7 8 7 6 5 6 6 6 6 5 5 5 5 5 5 5 5 6 6 6 6 7 7 7 8 8 8 8 8 9 9 9 9 9 9 9 9 10 10 10 10 10 10 11 11 11
7 7 8 7 7 7 6 5 6 6 6 5 5 5 5 5 5 5 5 5 5 5 6 6 6 6 7 7 7 7 8 8 8 8 8 9 9 9 9 9 9 9 9 10 10 10 10 10 10
6 7 7 7 6 6 5 5 6 6 6 5 5 4 4 4 4 4 4 4 5 5 5 5 5 6 6 6 7 7 7 7 8 8 8 8 8 8 9 9 9 9 9 9 9 9 10 10 10
6 6 6 6 6 5 5 5 5 6 5 5 4 4 4 4 4 4 4 4 4 4 5 5 5 5 5 6 6 6 7 7 7 7 7 8 8 8 8 8 8 8 8 9 9 9 9 9 9
5 5 5 5 6 5 4 4 5 5 4 4 3 3 3 3 3 3 4 4 4 4 4 4 5 5 5 5 5 6 6 6 7 7 7 7 7 7 8 8 8 8 8 8 8 9 9 9 9
5 4 4 4 4 5 4 4 4 4 4 4 3 3 3 3 3 3 3 3 3 3 3 4 4 4 4 5 5 5 5 6 6 6 6 7 7 7 7 7 8 8 8 8 8 8 9 8 9
4 4 4 3 3 3 4 2 4 4 3 3 3 3 2 2 2 2 2 2 3 3 3 3 4 4 4 4 4 4 4 5 5 5 6 6 6 6 7 7 7 7 7 7 8 8 8 8 8
3 4 3 3 3 2 3 2 3 3 3 2 2 2 2 1 1 2 2 2 2 2 2 3 3 3 3 4 4 4 4 4 5 5 5 5 6 6 6 6 7 7 7 7 7 8 8 8 8
3 3 3 3 3 2 3 2 2 2 2 2 2 1 1 1 1 1 1 1 1 2 2 2 2 2 3 3 3 3 4 4 4 4 5 5 5 5 5 6 6 6 6 7 7 7 7 7 8
2 2 2 2 2 2 3 2 1 2 2 1 1 1 0 0 0 1 1 1 1 1 1 1 1 2 2 2 2 3 3 3 4 4 4 4 5 5 5 5 5 6 6 6 6 7 7 7 7
2 2 1 1 2 3 2 1 1 1 1 1 1 0 -0 -0 -0 -0 0 0 0 1 1 1 1 1 1 1 2 2 2 3 3 3 4 4 4 4 4 5 5 5 5 6 6 6 6 7 7
1 1 1 1 1 1 2 2 1 1 0 0 -0 -1 -1 -1 -1 -1 -0 -0 -0 0 0 0 0 1 1 1 1 2 2 2 3 3 3 3 3 4 4 4 4 5 5 5 5 6 6 6 6
1 1 -0 -0 0 1 2 2 1 -0 -0 -1 -1 -1 -1 -1 -1 -1 -1 -1 -0 -0 -0 -0 -0 0 0 1 1 1 2 2 2 3 3 3 3 3 3 4 4 4 4 5 5 5 5 5 6
-1 -1 -1 -0 -0 0 0 1 1 -0 -1 -1 -1 -1 -1 -2 -2 -1 -1 -1 -1 -1 -1 -1 -1 -0 -0 -0 0 1 1 1 2 2 2 2 2 3 3 3 3 4 4 4 4 5 5 5 5
-1 -1 -1 -2 -1 -1 -1 -0 -0 -1 -1 -1 -1 -1 -2 -2 -2 -2 -2 -1 -1 -1 -1 -1 -1 -1 -1 -1 -0 0 0 1 1 1 1 2 2 2 2 2 3 3 3 3 4 4 4 4 5

GEFSSGP_850_meantemp_288.txt.gz
Temperature
16 17 17 17 14 11 13 13 14 15 15 15 15 15 14 13 14 13 12 13 13 14 14 14 14 14 14 14 14 14 14 14 14 15 14 14 14 14 15 15 15 15 15 15 15 15 15 15 15
16 17 17 16 12 12 12 12 13 14 15 15 15 14 13 12 12 12 12 12 13 13 13 13 13 13 14 14 14 14 14 14 14 14 14 14 14 14 14 14 14 15 15 15 15 14 14 14 14
16 16 16 11 11 12 13 13 13 14 15 15 13 13 12 11 11 11 12 12 13 13 13 13 13 13 13 13 13 13 13 14 14 14 14 14 14 14 14 14 14 14 14 14 14 14 14 14 14
16 16 14 10 11 11 12 12 12 13 14 14 12 11 11 10 10 11 12 12 12 13 13 13 13 13 13 13 13 13 13 13 13 13 14 14 14 14 14 14 14 14 14 14 14 14 14 14 14
15 14 10 10 10 11 11 12 12 12 12 12 12 10 10 10 10 11 12 12 12 12 13 13 13 13 13 13 13 13 13 13 13 13 13 13 13 13 13 14 14 14 14 14 14 14 14 14 14
14 11 9 10 10 11 10 11 11 10 11 11 10 9 9 9 10 11 11 12 12 12 12 12 12 12 12 12 12 13 12 13 13 13 13 13 13 13 13 13 13 13 14 14 14 13 13 13 13
12 8 9 10 10 10 10 10 10 9 9 9 10 8 8 9 10 10 11 11 11 12 12 12 12 12 12 12 12 12 12 12 12 12 13 13 13 13 13 13 13 13 13 14 13 13 13 13 13
12 8 9 9 9 9 9 9 9 9 8 9 9 8 7 8 9 9 10 11 11 11 11 12 12 12 12 12 12 12 12 12 12 12 12 12 12 13 13 13 13 13 13 13 13 13 13 13 13
12 7 8 9 9 8 8 8 8 8 8 8 8 8 8 8 8 9 10 10 10 11 11 11 11 11 11 11 11 11 11 11 12 12 12 12 12 12 12 13 13 13 13 13 13 13 13 13 13
10 6 8 8 8 7 7 7 7 7 7 6 7 7 7 8 8 9 9 9 10 10 10 10 10 10 11 11 11 11 11 11 11 11 11 11 12 12 12 12 12 12 12 12 12 12 12 12 13
7 6 7 7 7 7 7 6 7 6 5 6 6 6 7 7 7 8 8 8 9 9 9 10 10 10 10 10 10 11 11 11 11 11 11 11 11 11 11 11 11 12 12 12 12 12 12 12 12
6 6 7 6 7 6 6 6 6 5 6 6 6 6 6 6 6 7 8 8 8 8 9 9 9 9 9 10 10 10 10 10 10 10 10 10 11 11 11 11 11 11 11 11 12 12 11 12 12
5 5 6 6 6 5 5 5 5 5 5 6 6 5 6 6 6 6 7 7 7 8 8 8 8 9 9 9 9 9 9 10 10 10 10 10 10 10 10 10 10 10 11 11 11 11 11 11 11
5 5 5 5 5 5 5 4 4 4 5 5 5 5 5 5 6 6 6 7 7 7 7 7 8 8 8 8 9 9 9 9 9 9 9 9 9 10 10 10 10 10 10 10 10 11 11 11 11
5 4 4 5 5 5 4 3 3 5 5 4 4 5 5 5 5 5 6 6 6 7 7 7 7 7 8 8 8 8 8 8 9 9 9 9 9 9 9 9 9 9 9 10 10 10 10 10 10
5 4 4 4 4 4 4 3 4 4 4 4 4 4 4 4 5 5 5 5 6 6 6 7 7 7 7 7 7 8 8 8 8 8 8 8 8 9 9 9 9 9 9 9 9 10 10 10 10
3 3 4 4 4 4 3 2 3 4 3 3 3 3 4 4 4 4 5 5 5 6 6 6 6 6 6 6 7 7 7 7 7 7 8 8 8 8 8 8 8 9 9 9 9 9 9 9 10
3 3 3 3 3 3 2 2 2 3 3 3 3 3 3 3 4 4 4 4 5 5 5 6 6 6 6 6 6 6 6 7 7 7 7 7 7 8 8 8 8 8 8 8 8 9 9 9 9
3 3 3 3 3 3 2 2 2 2 2 2 2 2 2 3 3 3 4 4 4 5 5 5 5 5 5 5 5 6 6 6 6 7 7 7 7 7 7 7 7 7 8 8 8 8 8 8 9
3 3 2 2 3 3 1 1 2 2 1 2 2 2 2 2 2 3 3 3 4 4 4 5 5 5 5 5 5 5 5 5 6 6 6 7 7 7 7 7 7 7 7 7 7 8 8 8 8
3 2 2 2 2 2 1 1 1 2 2 2 1 2 2 2 1 2 2 3 3 3 3 4 4 4 4 4 4 4 4 5 5 5 6 6 6 6 6 7 7 7 7 7 7 7 7 8 8
2 2 2 2 1 0 1 1 1 1 1 1 1 1 1 1 1 1 2 2 2 3 3 3 4 4 4 4 4 4 4 4 4 5 5 5 5 6 6 6 6 6 6 6 7 7 7 7 7
2 2 1 1 0 -1 -0 -0 1 -0 0 0 -0 0 1 1 1 1 1 2 2 2 2 3 3 3 3 3 3 3 3 3 4 4 4 5 5 5 5 5 5 6 6 6 6 6 6 7 7
1 1 0 -1 -1 -0 -0 -0 0 -1 -0 -0 -1 -0 -0 0 0 1 1 1 2 2 2 2 2 3 3 3 3 3 3 3 3 4 4 4 4 5 5 5 5 5 5 6 6 6 6 6 6
0 -0 0 0 -1 -0 -0 -0 -0 -1 -1 -1 -1 -1 -0 -0 -0 0 0 1 1 1 2 2 2 2 2 2 2 2 2 3 3 3 3 4 4 4 4 5 5 5 5 5 5 5 6 6 6
-0 -0 0 1 0 -0 -1 -1 -1 -1 -1 -1 -1 -1 -1 -0 -0 -0 -0 0 0 1 1 1 1 1 1 1 2 2 2 2 2 2 3 3 3 4 4 4 4 4 5 5 5 5 5 5 6
-0 -1 -1 -2 -2 -2 -2 -2 -2 -1 -2 -2 -1 -1 -1 -1 -1 -1 -1 -0 -0 0 0 0 1 1 1 1 1 1 1 1 2 2 2 2 3 3 3 4 4 4 4 4 4 4 5 5 5
-1 -2 -3 -2 -1 -1 -2 -2 -2 -2 -2 -3 -3 -2 -1 -1 -1 -1 -1 -1 -1 -0 -0 0 0 0 0 0 0 0 1 1 1 1 2 2 2 3 3 3 3 4 4 4 4 4 4 4 5
-2 -2 -3 -3 -3 -2 -2 -1 -2 -3 -3 -3 -3 -2 -2 -2 -2 -2 -2 -1 -1 -1 -1 -0 -0 -0 -0 -0 -0 -0 0 0 1 1 1 1 1 2 2 3 3 3 3 3 4 4 4 4 4
-3 -3 -4 -2 -3 -4 -4 -2 -2 -3 -3 -2 -2 -2 -2 -2 -2 -2 -2 -2 -2 -1 -1 -1 -1 -1 -1 -1 -1 -1 -0 -0 0 0 0 1 1 1 2 2 2 2 3 3 3 3 3 4 4

GEFSSGP_850_meantemp_294.txt.gz
Temperature
17 17 17 17 13 10 12 12 11 12 12 12 12 12 11 11 12 12 11 11 12 12 13 13 13 13 13 13 14 14 14 14 14 14 14 14 14 14 14 14 14 14 14 14 14 14 14 15 15
16 17 17 16 11 12 12 11 11 11 11 11 11 11 11 10 10 10 11 11 12 12 12 13 13 13 13 13 13 13 13 14 14 14 14 14 14 14 14 14 14 14 14 14 14 14 14 14 14
16 16 16 10 10 11 12 11 10 10 11 11 10 10 10 9 10 10 10 11 11 12 12 12 12 13 13 13 13 13 13 13 13 13 13 13 14 14 14 14 14 14 14 14 14 14 14 14 14
16 16 14 9 10 10 10 10 9 9 10 10 9 9 9 9 9 10 10 11 11 11 12 12 12 12 13 13 13 13 13 13 13 13 13 13 13 13 13 13 13 13 14 14 14 14 14 14 14
15 15 10 9 10 9 9 9 9 9 9 9 9 8 8 9 9 10 10 10 11 11 11 12 12 12 12 12 12 12 12 12 13 13 13 13 13 13 13 13 13 13 13 13 13 13 13 13 13
15 10 9 9 10 9 8 8 9 8 8 8 8 7 8 8 9 10 10 10 10 11 11 11 11 12 12 12 12 12 12 12 12 12 13 13 13 13 13 13 13 13 13 13 13 13 13 13 13
12 8 8 9 9 9 8 8 8 7 7 7 7 7 7 8 9 9 9 10 10 10 11 11 11 11 11 11 11 12 12 12 12 12 12 12 12 13 13 13 13 13 13 13 13 13 13 13 13
12 7 8 7 8 8 7 7 7 7 7 7 7 6 6 7 8 8 9 9 10 10 10 10 11 11 11 11 11 11 11 11 12 12 12 12 12 12 12 12 12 12 12 12 12 12 12 12 12
11 7 7 7 7 7 6 6 6 6 6 6 6 7 7 7 8 8 9 9 9 10 10 10 10 10 10 11 11 11 11 11 11 11 11 11 11 11 12 12 12 12 12 12 12 12 12 12 12
9 6 7 7 6 6 5 6 5 6 5 5 6 6 7 7 7 8 8 8 9 9 9 10 10 10 10 10 10 10 10 10 10 11 11 11 11 11 11 11 11 11 11 11 12 12 12 12 12
6 5 6 5 6 6 5 5 5 5 4 5 5 6 6 6 7 7 7 7 8 8 9 9 9 10 10 10 10 10 10 10 10 10 10 10 10 10 10 11 11 11 11 11 11 11 11 11 12
4 4 5 5 5 5 5 5 4 4 5 6 6 6 6 6 6 7 7 7 7 8 8 8 8 9 9 9 9 9 9 9 10 10 10 10 10 10 10 10 10 11 11 11 11 11 11 11 11
4 4 4 4 4 4 4 4 4 4 5 5 5 5 5 5 6 6 6 6 7 7 7 7 8 8 8 9 9 9 9 9 9 9 9 9 9 10 10 10 10 10 10 10 10 10 10 10 11
4 4 4 4 4 4 3 3 3 4 5 5 5 5 5 5 5 5 6 6 6 6 7 7 7 7 8 8 8 9 9 9 9 9 9 9 9 9 9 9 9 10 10 10 10 10 10 10 10
4 3 4 3 3 3 3 3 2 4 4 4 4 4 4 4 4 5 5 6 6 6 6 6 7 7 7 7 8 8 8 8 8 8 8 8 8 9 9 9 9 9 9 9 9 9 9 9 10
4 4 4 4 3 3 3 4 3 4 3 3 3 3 4 4 4 4 5 5 5 5 6 6 6 6 7 7 7 7 7 8 8 8 8 8 8 8 8 8 9 8 9 8 8 9 9 9 9
3 3 3 3 2 2 2 2 2 3 3 2 2 3 3 3 3 4 4 4 4 5 5 5 6 6 6 6 6 7 7 7 7 7 7 7 7 8 8 8 8 8 8 8 8 8 8 8 9
3 3 3 3 2 2 1 1 2 2 2 1 2 2 2 2 3 3 3 4 4 4 4 5 5 5 6 6 6 6 6 6 6 7 7 7 7 7 7 7 7 7 7 7 7 8 8 8 8
3 2 2 2 2 2 1 1 1 2 1 0 1 1 1 2 3 3 3 3 3 4 4 4 5 5 5 5 5 5 6 6 6 6 6 6 6 6 6 7 7 7 7 7 7 7 7 7 7
2 2 2 2 2 2 -0 0 1 0 -0 0 0 1 1 1 2 2 3 3 3 3 3 4 4 4 4 4 5 5 5 5 5 5 5 6 6 6 6 6 6 6 6 7 7 6 6 6 7
2 2 2 2 1 0 -0 1 1 0 0 0 1 1 1 1 1 2 2 2 3 3 3 3 3 4 4 4 4 4 4 4 5 5 5 5 5 5 6 6 6 6 6 6 6 6 6 6 6
2 2 2 1 1 -0 -0 1 1 -0 -1 -0 -0 0 1 1 1 1 2 2 2 2 3 3 3 3 3 3 3 3 3 4 4 4 4 4 5 5 5 5 5 5 5 6 6 6 6 6 6
1 1 1 0 -0 -1 -1 -1 1 -1 -0 -0 -1 -0 0 1 1 1 1 1 2 2 2 2 2 2 3 3 3 3 3 3 3 3 3 4 4 4 4 5 4 5 5 5 5 5 5 5 5
0 0 -0 -1 -2 -0 -1 -1 0 -1 -1 -1 -1 -0 -0 0 0 1 1 1 1 2 2 2 2 2 2 2 2 2 2 2 2 3 3 3 3 3 4 4 4 4 4 5 5 5 5 5 5
-0 0 1 1 -0 0 -1 -1 -1 -2 -2 -2 -2 -1 -1 -0 -0 0 0 1 1 1 1 1 1 1 2 2 2 2 2 2 2 2 2 2 3 3 3 3 3 4 4 4 4 4 4 4 4
-1 0 1 1 1 -1 -2 -2 -1 -2 -2 -2 -2 -1 -1 -1 -1 -0 -0 -0 0 0 0 1 1 1 1 1 1 1 1 1 1 1 2 2 2 2 2 3 3 3 3 3 4 4 4 4 4
-1 -2 -2 -2 -3 -3 -2 -3 -3 -2 -2 -2 -2 -2 -1 -1 -1 -1 -0 -0 -0 -0 -0 -0 0 0 1 1 1 1 1 1 1 1 1 1 1 2 2 2 2 3 3 3 3 3 4 4 4
-2 -3 -3 -2 -1 -1 -1 -2 -2 -2 -2 -3 -3 -2 -1 -1 -1 -1 -1 -1 -1 -1 -1 -0 -0 -0 -0 0 0 0 0 1 1 1 1 1 1 1 1 2 2 2 2 2 3 3 3 3 4
-3 -3 -4 -4 -3 -2 -1 -1 -2 -3 -3 -4 -3 -2 -2 -1 -2 -2 -2 -1 -1 -1 -1 -1 -1 -1 -1 -1 -1 -0 -0 0 0 0 0 0 0 1 1 1 1 2 2 2 2 2 3 3 3
-3 -4 -4 -2 -3 -5 -4 -1 -3 -4 -4 -4 -3 -2 -2 -2 -2 -2 -2 -2 -2 -2 -2 -1 -1 -1 -1 -1 -1 -1 -1 -1 -0 -0 -0 -0 0 0 0 1 1 1 1 2 2 2 2 2 3

GEFSSGP_850_meantemp_300.txt.gz
Temperature
17 17 17 18 20 21 20 19 18 17 17 14 14 15 17 17 17 15 11 11 11 11 12 12 12 12 13 13 13 13 14 14 14 14 14 14 14 14 14 14 14 14 14 14 14 15 14 14 14
17 17 17 18 21 21 19 18 17 16 15 12 13 14 15 14 11 10 10 11 11 11 11 12 12 12 13 13 13 13 13 13 14 14 14 14 14 14 14 14 14 14 14 14 14 14 14 14 14
16 17 17 19 20 21 19 17 16 14 12 12 13 12 13 12 9 9 10 10 11 11 11 12 12 12 12 12 12 13 13 13 13 13 13 13 13 14 13 13 13 14 14 14 14 14 14 14 14
16 16 17 19 18 17 17 15 14 13 12 11 12 12 10 9 8 9 10 10 10 11 11 11 12 12 12 12 12 12 13 13 13 13 13 13 13 13 13 13 13 13 13 13 14 13 14 14 14
16 17 18 18 17 15 14 13 12 13 13 11 11 12 10 8 9 9 9 10 10 10 11 11 11 12 12 12 12 12 12 12 13 13 13 13 13 13 13 13 13 13 13 13 13 13 13 13 13
15 18 19 18 17 14 13 11 11 13 12 10 10 11 10 8 9 9 9 9 10 10 10 11 11 11 12 12 12 12 12 12 12 12 12 13 13 13 13 13 13 13 13 13 13 13 13 13 13
16 17 18 17 16 14 13 10 11 12 12 10 9 11 9 8 8 9 9 9 9 10 10 10 11 11 11 11 11 11 12 12 12 12 12 12 12 12 12 12 12 12 12 13 12 12 12 13 13
13 16 16 15 15 14 11 10 9 10 10 8 8 10 9 7 8 8 8 9 9 9 9 10 10 10 11 11 11 11 11 11 12 12 12 12 12 12 12 12 12 12 12 12 12 12 12 12 12
12 16 16 15 14 13 10 10 8 7 8 7 7 7 7 7 7 8 8 8 9 9 9 9 10 10 10 10 11 11 11 11 11 11 11 11 11 11 11 11 11 12 12 12 12 12 12 12 12
13 15 14 12 11 11 9 9 8 8 8 8 6 6 6 7 7 7 7 8 8 8 9 9 9 9 10 10 10 10 10 10 11 11 11 11 11 11 11 11 11 11 11 11 11 11 11 11 11
11 12 10 8 8 8 8 8 7 9 10 8 7 6 6 6 6 6 7 7 7 8 8 8 9 9 9 9 10 10 10 10 10 10 10 10 10 10 10 10 10 10 10 10 11 11 11 11 11
9 8 8 7 6 7 7 7 7 7 8 6 6 6 6 5 6 6 6 7 7 7 8 8 8 8 9 9 9 9 9 9 10 10 10 10 10 10 10 10 10 10 10 10 10 10 10 10 10
9 7 6 5 5 5 6 6 7 6 5 5 5 5 5 5 5 5 5 6 6 7 7 7 7 8 8 8 8 9 9 9 9 9 9 9 9 9 9 9 9 9 9 9 9 9 9 9 10
7 7 6 5 5 5 6 6 6 6 5 5 5 5 4 4 5 5 5 5 6 6 7 7 7 7 7 8 8 8 8 8 8 9 9 9 9 9 9 9 9 9 9 9 9 9 9 9 9
6 7 7 6 6 5 6 8 7 6 4 4 4 4 4 4 4 4 5 5 5 6 6 6 6 6 7 7 7 7 8 8 8 8 8 8 8 8 8 8 8 9 9 9 9 9 9 9 9
8 9 10 8 6 5 7 10 8 5 4 4 4 4 3 3 4 4 4 4 5 5 5 6 6 6 6 6 7 7 7 7 7 7 8 8 8 8 8 8 8 8 8 8 8 8 8 8 8
9 10 10 8 6 6 7 9 8 4 4 4 4 3 3 3 3 4 4 4 4 4 5 5 5 6 6 6 6 6 6 7 7 7 7 7 7 7 7 7 7 7 8 8 8 8 8 8 8
10 10 9 9 7 6 6 8 7 5 4 4 4 3 2 2 2 3 4 4 4 4 4 4 5 5 5 5 5 6 6 6 6 6 6 6 7 7 7 7 7 7 7 7 7 7 7 7 7
8 8 8 8 6 5 6 7 7 5 4 3 3 2 2 2 2 2 3 3 3 4 4 4 4 4 4 5 5 5 5 5 6 6 6 6 6 6 6 6 6 6 6 7 6 6 6 7 7
7 7 8 7 5 5 5 6 6 5 4 3 3 2 2 1 2 2 3 3 3 3 3 4 4 4 4 4 4 4 5 5 5 5 5 5 5 5 6 6 6 6 6 6 6 6 6 6 6
6 7 7 6 5 4 4 8 7 5 3 2 2 2 2 1 1 2 2 2 2 3 3 3 3 3 3 3 4 4 4 4 4 4 4 5 5 5 5 5 5 5 6 6 6 6 6 5 5
7 5 5 5 6 7 5 8 8 5 4 4 3 2 1 1 1 1 1 2 2 2 3 3 3 3 3 3 3 3 3 3 4 4 4 4 4 4 4 4 5 5 5 5 5 5 5 5 5
5 4 4 4 5 5 5 6 9 5 5 4 3 2 1 0 0 1 1 1 2 2 2 2 2 2 2 2 3 3 3 3 3 3 3 3 3 3 4 4 4 4 4 4 4 5 5 5 5
3 3 3 3 5 6 5 6 8 6 5 4 3 1 0 0 -0 0 1 1 1 1 2 2 2 2 2 2 2 2 2 2 2 2 2 3 3 3 3 3 3 3 3 4 4 4 4 4 4
4 5 6 7 7 7 4 4 6 5 3 2 1 0 -0 -1 -1 -0 0 0 1 1 1 1 2 2 2 1 2 2 2 2 2 2 2 2 2 2 2 2 2 3 3 3 3 3 3 4 3
3 4 6 7 8 8 3 4 6 3 1 -0 -0 -1 -1 -1 -1 -1 -1 -0 -0 0 1 1 1 1 1 1 1 1 1 1 1 1 1 1 1 1 1 2 2 2 2 2 2 3 3 3 3
3 4 3 4 3 4 6 5 4 2 1 0 -0 -1 -1 -1 -1 -1 -1 -1 -1 -0 -0 0 0 0 1 1 1 1 1 1 1 1 1 1 1 1 1 1 1 1 2 2 2 2 2 2 2
2 2 3 4 5 6 7 5 6 3 2 1 0 -1 -1 -1 -2 -2 -2 -1 -1 -1 -1 -0 -0 -0 -0 0 0 0 0 0 0 0 0 1 1 1 1 1 1 1 1 1 1 1 2 2 2
1 1 1 3 3 5 6 6 4 2 2 1 -0 -1 -2 -2 -2 -2 -2 -2 -2 -2 -1 -1 -1 -1 -1 -0 -0 -0 -0 -0 0 -0 0 0 0 0 0 0 0 1 1 1 1 1 1 1 1
0 1 1 3 2 2 4 5 2 1 -0 -1 -1 -2 -2 -2 -2 -2 -2 -2 -2 -2 -2 -2 -1 -1 -1 -1 -1 -1 -1 -1 -1 -1 -0 -0 -0 -0 -0 -0 -0 0 0 0 0 1 1 1 1

GEFSSGP_850_meantemp_306.txt.gz
Temperature
18 18 18 18 18 18 19 20 20 19 19 17 17 18 17 15 15 13 11 11 11 12 12 12 13 13 13 13 13 13 13 14 14 14 14 14 14 14 14 14 14 14 14 14 14 14 14 14 14
18 18 18 18 18 18 19 19 19 18 17 16 17 17 17 14 12 11 11 11 11 11 12 12 12 13 13 13 13 13 13 13 13 13 14 14 14 14 14 14 14 14 14 14 14 14 14 14 14
17 17 18 18 18 18 19 18 17 16 16 16 16 15 15 12 11 10 10 10 10 11 11 12 12 12 12 12 12 13 13 13 13 13 13 13 13 14 14 14 14 14 14 14 14 14 14 14 14
17 17 18 17 17 18 18 17 16 16 15 15 15 14 12 11 10 10 10 10 10 10 11 11 12 12 12 12 12 12 12 13 13 13 13 13 13 13 13 13 13 14 14 14 13 13 13 14 14
16 17 17 17 17 17 17 16 16 16 15 15 15 13 11 10 10 10 10 10 10 10 11 11 11 12 12 12 12 12 12 12 12 13 13 13 13 13 13 13 13 13 13 13 13 13 13 13 13
17 18 17 17 17 17 16 16 16 16 15 14 14 13 10 10 10 10 10 10 10 10 10 11 11 11 12 12 12 12 12 12 12 12 12 13 13 13 13 13 13 13 13 13 13 13 13 13 13
16 16 17 17 17 17 15 15 15 15 14 13 13 12 10 9 9 9 9 10 10 10 10 11 11 11 11 11 11 11 12 12 12 12 12 12 12 12 12 12 12 12 12 12 13 13 13 13 13
15 16 17 17 17 16 15 14 14 13 13 12 12 11 9 8 9 9 9 9 9 10 10 10 10 11 11 11 11 11 11 11 11 12 12 12 12 12 12 12 12 12 12 12 12 12 12 12 12
15 14 15 16 16 14 14 13 12 12 11 11 10 10 9 9 8 8 8 9 9 9 9 9 10 10 10 10 11 11 11 11 11 11 11 11 11 11 11 11 12 12 12 12 12 12 12 12 12
14 13 13 13 13 13 13 13 12 11 11 10 9 8 8 8 8 8 8 8 8 9 9 9 9 9 9 10 10 10 10 10 11 11 11 11 11 11 11 11 11 11 11 11 11 11 11 11 11
13 12 12 12 11 12 12 12 11 11 10 10 9 8 7 7 7 7 7 7 7 8 8 8 9 9 9 9 10 10 10 10 10 10 10 10 10 10 11 10 10 10 11 11 11 11 11 11 11
12 11 12 11 10 11 11 11 11 10 9 9 9 8 7 7 7 6 6 7 7 7 8 8 8 8 8 9 9 9 9 9 9 9 9 10 10 10 10 10 10 10 10 10 10 10 10 10 10
11 10 10 9 9 9 10 10 10 9 8 8 8 8 7 6 6 6 6 6 6 7 7 7 8 8 8 8 8 8 9 9 9 9 9 9 9 9 10 10 10 10 10 10 10 10 10 10 10
11 10 9 9 9 9 9 9 9 9 8 8 7 7 6 6 5 5 5 6 6 6 7 7 7 7 8 8 8 8 8 8 8 8 9 9 9 9 9 9 9 9 9 9 9 9 9 9 9
9 9 9 9 9 9 8 8 8 9 8 7 7 6 6 5 5 5 5 5 5 6 6 6 7 7 7 7 7 8 8 8 8 8 8 8 8 9 9 9 9 9 9 9 9 9 9 9 9
10 10 9 9 9 9 8 8 9 8 7 7 6 6 5 5 5 4 4 4 5 5 6 6 6 6 7 7 7 7 7 7 8 8 8 8 8 8 8 8 8 8 8 8 8 8 8 8 8
10 10 10 9 9 9 8 8 8 8 7 7 6 6 5 5 4 4 4 4 4 5 5 5 6 6 6 6 6 7 7 7 7 7 7 7 7 7 7 8 8 8 8 8 8 8 8 8 8
10 10 11 10 8 8 7 8 8 7 7 7 6 6 5 4 4 4 4 4 4 4 5 5 5 5 6 6 6 6 6 6 6 6 7 7 7 7 7 7 7 7 7 7 7 7 7 7 7
9 9 9 9 8 8 7 8 7 7 7 6 6 5 5 4 4 3 3 3 3 4 4 4 5 5 5 5 5 5 6 6 6 6 6 6 6 6 6 6 6 7 7 7 7 7 7 7 7
8 8 9 8 8 7 7 6 7 6 6 6 5 4 4 4 3 3 3 3 3 3 4 4 4 4 5 5 5 5 5 5 5 5 5 6 6 6 6 6 6 6 6 6 6 6 6 6 6
8 7 7 7 6 7 6 6 7 7 6 5 5 4 4 4 3 3 3 3 3 3 3 3 3 4 4 4 4 4 4 4 4 5 5 5 5 5 5 5 5 5 5 6 6 6 6 6 6
7 7 6 6 5 5 6 5 6 6 5 5 4 4 4 3 3 2 2 2 2 2 3 3 3 3 3 4 4 4 4 4 4 4 4 4 4 5 5 5 5 5 5 5 5 5 5 5 5
6 6 5 5 5 5 5 5 5 6 5 4 4 4 3 3 3 2 2 2 2 2 2 2 3 3 3 3 3 3 3 3 3 3 4 4 4 4 4 4 4 4 4 4 4 4 4 4 4
5 5 5 5 4 4 5 5 5 5 5 4 4 3 3 3 2 2 2 2 2 2 2 2 2 2 2 2 3 3 3 3 3 3 3 3 3 3 3 3 3 3 3 3 3 3 3 4 4
4 4 4 5 5 5 6 5 4 4 4 3 3 3 2 2 2 2 1 1 1 1 2 2 2 2 2 2 2 2 2 2 2 2 2 2 2 3 3 3 3 3 3 3 3 3 3 3 3
4 4 4 5 5 5 5 4 4 3 3 3 3 3 2 1 1 1 1 1 0 1 1 1 1 1 1 1 1 1 1 1 1 2 2 2 2 2 2 2 2 2 2 2 2 2 2 2 2
4 3 4 3 3 3 4 4 3 3 2 2 2 2 1 1 1 0 0 0 0 0 0 0 0 0 1 1 1 1 1 1 1 1 1 1 1 1 1 2 2 1 1 1 1 1 2 2 2
2 3 2 3 3 4 5 5 4 2 1 1 1 1 1 0 -0 -0 -0 -0 -0 -1 -1 -1 -1 -1 -0 -0 0 0 0 0 0 0 0 1 1 1 1 1 1 1 1 1 1 1 1 1 1
1 2 2 2 3 3 3 4 3 2 1 1 0 1 0 -0 -1 -1 -1 -1 -1 -1 -1 -1 -1 -1 -1 -1 -1 -0 -0 -0 0 0 0 0 0 0 0 0 0 1 1 1 1 1 1 1 1
1 1 1 1 2 2 2 2 2 1 1 1 0 0 -0 -1 -1 -1 -1 -1 -2 -2 -2 -2 -2 -2 -2 -2 -1 -1 -1 -1 -1 -0 -0 -0 -0 -0 -0 -0 -0 -0 0 0 0 0 0 0 0

GEFSSGP_850_meantemp_312.txt.gz
Temperature
17 17 18 18 14 12 13 14 14 14 14 14 14 13 12 12 12 12 11 11 11 11 12 12 12 12 12 12 13 13 13 14 14 14 14 14 14 14 14 14 14 14 14 14 14 14 14 14 14
17 17 18 17 12 13 13 13 13 13 14 14 13 13 11 10 10 10 10 10 11 11 11 11 11 12 12 12 12 13 13 13 13 13 14 14 14 14 14 14 14 14 14 14 14 14 14 14 14
17 17 17 11 12 12 14 13 12 13 14 14 12 11 10 10 10 10 10 10 11 11 11 11 11 11 12 12 12 12 12 13 13 13 13 13 13 13 13 13 13 14 13 13 13 13 13 13 13
17 17 15 11 12 12 13 12 12 12 13 13 12 10 9 9 9 10 10 10 11 11 11 11 11 11 11 12 12 12 12 12 13 13 13 13 13 13 13 13 13 13 13 13 13 13 13 13 13
17 16 11 11 12 12 11 12 13 12 12 12 11 9 9 9 9 10 10 10 11 11 11 11 11 11 11 11 12 12 12 12 12 12 13 13 13 13 13 13 13 13 13 13 13 13 13 13 13
16 12 11 11 12 12 12 13 12 11 11 11 10 8 8 9 9 10 10 10 10 10 10 11 11 11 11 11 12 12 12 12 12 12 12 12 12 13 13 13 12 13 12 12 12 13 13 13 13
14 10 11 11 11 11 12 13 12 11 11 10 11 8 8 8 9 9 9 9 10 10 10 10 11 11 11 11 11 12 12 12 12 12 12 12 12 12 12 12 12 12 12 12 12 12 12 12 12
14 10 11 10 11 11 12 12 12 11 10 10 10 8 8 8 8 8 9 9 9 9 10 10 10 10 11 11 11 11 11 11 11 12 12 12 12 12 12 12 12 12 12 12 12 12 12 12 12
14 9 10 11 11 11 11 11 11 11 10 9 9 9 9 8 8 8 8 9 9 9 9 9 10 10 10 10 11 11 11 11 11 11 11 11 11 11 12 12 12 12 11 11 12 12 12 12 12
12 9 10 10 10 10 10 10 10 10 9 8 8 9 9 8 8 8 8 8 9 9 9 9 9 9 10 10 10 10 10 11 11 11 11 11 11 11 11 11 11 11 11 11 11 11 11 11 11
9 8 9 9 10 10 10 10 10 9 7 7 8 8 8 8 8 8 8 8 8 8 8 8 8 9 9 9 10 10 10 10 10 10 10 10 10 10 11 11 11 11 11 11 11 11 11 11 11
8 8 9 9 10 10 9 9 8 8 8 9 9 8 8 8 7 7 7 7 7 7 8 8 8 8 9 9 9 9 9 9 10 10 10 10 10 10 10 10 10 10 10 10 10 10 10 10 10
8 8 8 9 9 9 9 8 8 7 8 8 8 8 7 7 7 7 7 7 7 7 7 8 8 8 8 8 9 9 9 9 9 9 9 9 10 10 10 10 10 10 10 10 10 10 10 10 10
7 7 8 8 8 8 7 7 7 7 7 7 7 7 6 7 6 6 6 7 7 7 7 7 7 7 8 8 8 8 8 8 8 9 9 9 9 9 9 9 9 9 9 9 9 9 9 9 9
8 7 7 7 8 8 7 6 5 7 7 7 6 6 6 6 6 6 6 6 6 7 7 7 7 7 7 7 8 8 8 8 8 8 8 8 8 8 9 9 9 9 9 9 9 9 9 9 9
7 7 7 7 7 7 7 7 6 7 6 6 6 5 5 5 5 5 5 6 6 6 6 6 6 7 7 7 7 7 7 7 8 8 8 8 8 8 8 8 8 8 8 8 8 8 8 8 8
6 6 7 7 6 6 6 5 5 6 6 5 5 5 5 4 5 5 5 5 5 5 6 6 6 6 6 6 7 7 7 7 7 7 7 7 7 7 7 7 8 8 8 8 8 8 8 8 8
6 6 6 6 6 5 5 4 4 5 5 4 4 4 4 4 4 4 4 5 5 5 5 5 5 6 6 6 6 6 6 6 7 7 7 7 7 7 7 7 7 7 7 7 7 7 7 7 7
6 6 6 6 6 5 4 4 4 4 4 3 3 3 3 4 4 4 4 4 4 4 4 5 5 5 5 5 6 6 6 6 6 6 6 6 6 6 6 6 7 7 7 7 7 7 7 7 7
6 6 5 5 5 5 4 3 3 3 3 3 3 3 3 3 3 4 4 4 4 4 4 4 4 4 5 5 5 5 5 6 6 6 6 6 6 6 6 6 6 6 6 6 6 6 6 6 6
5 5 5 4 4 4 4 4 3 3 3 3 3 3 3 3 3 3 3 4 4 4 4 4 4 4 4 4 4 4 5 5 5 5 5 5 5 5 5 5 5 5 6 6 6 6 6 6 6
5 5 4 4 3 2 3 4 3 3 2 2 2 3 3 3 3 3 3 3 3 3 3 3 3 3 3 4 4 4 4 4 5 5 5 5 4 4 5 5 5 5 5 5 5 5 5 5 5
4 4 4 3 2 2 2 3 3 2 2 2 1 2 2 3 3 3 3 3 3 3 3 3 3 3 3 3 3 3 3 4 4 4 4 4 4 4 4 4 4 4 4 4 4 4 4 4 4
3 3 2 1 1 3 2 2 3 1 2 2 1 2 2 2 3 3 3 3 3 3 3 3 3 3 2 2 3 3 3 3 3 3 3 3 3 3 3 3 3 4 4 4 4 4 4 4 4
3 2 3 3 2 3 2 2 2 2 1 1 1 2 2 2 2 2 2 2 2 2 2 2 2 2 2 2 2 2 2 2 2 2 2 2 3 3 3 3 3 3 3 3 3 3 3 3 3
2 3 3 4 3 2 1 1 1 1 1 1 2 2 2 2 2 2 2 2 2 2 2 2 1 1 1 1 1 1 1 1 2 2 2 2 2 2 2 2 2 2 2 2 2 2 2 2 2
2 1 2 1 1 1 1 0 0 1 0 0 1 1 1 1 1 1 1 1 1 1 1 1 1 1 1 1 1 1 1 1 1 1 1 1 1 1 1 1 2 2 2 2 2 2 2 2 2
1 0 -0 1 2 2 2 1 1 1 -0 -1 -1 -0 1 1 1 1 1 1 1 1 1 1 1 0 0 0 0 0 0 0 0 0 0 1 1 1 1 1 1 1 1 1 1 1 1 1 1
0 0 -0 -1 -0 1 1 2 0 -0 -1 -1 -1 -0 0 0 0 0 0 0 -0 -0 -0 -0 -0 -0 -0 -1 -1 -1 -1 -1 -1 -0 -0 -0 -0 0 0 0 0 0 0 0 0 0 0 0 1
-1 -1 -1 0 -0 -1 -1 1 -0 -2 -2 -1 -1 -0 0 -0 0 -0 -0 -1 -1 -1 -1 -1 -1 -1 -1 -1 -1 -1 -1 -1 -1 -1 -1 -1 -1 -1 -0 -0 -0 -1 -1 -0 -0 -0 -0 -0 -0

GEFSSGP_850_meantemp_318.txt.gz
Temperature
17 17 17 18 14 11 13 13 12 12 12 11 12 11 11 11 11 12 11 11 11 11 11 11 11 12 12 12 12 13 13 13 13 13 13 13 13 13 14 14 14 14 14 13 14 14 14 14 14
17 17 17 16 12 13 13 12 12 12 12 11 11 11 10 10 10 10 11 11 11 11 11 11 11 11 11 12 12 12 12 12 13 13 13 13 13 13 13 13 13 13 13 13 13 13 13 13 14
16 17 17 11 11 12 13 12 11 11 11 11 10 10 10 9 10 10 10 11 11 11 11 11 11 11 11 11 12 12 12 12 12 13 13 13 13 13 13 13 13 13 13 13 13 13 13 13 13
16 17 15 10 12 11 11 11 10 10 11 11 10 9 9 9 9 10 10 10 10 11 11 11 11 11 11 11 11 12 12 12 12 12 12 13 13 13 13 13 13 13 13 13 13 13 13 13 13
16 16 11 10 11 10 10 10 11 10 9 9 9 8 8 9 9 10 10 10 10 10 10 11 11 11 11 11 11 12 12 12 12 12 12 12 12 12 12 12 12 13 13 13 12 13 13 13 13
16 11 10 11 11 10 10 10 10 9 9 9 9 8 8 9 9 10 10 10 10 10 10 10 10 10 11 11 11 11 12 12 12 12 12 12 12 12 12 12 12 12 12 12 12 12 12 13 13
13 9 10 11 10 10 10 10 10 9 8 9 9 8 8 9 9 9 9 9 9 9 10 10 10 10 10 11 11 11 11 11 12 12 12 12 12 12 12 12 12 12 12 12 12 12 12 12 12
13 8 9 9 10 10 10 10 10 10 9 9 9 8 8 9 9 9 9 9 9 9 9 9 9 10 10 10 10 11 11 11 11 11 11 11 12 12 12 12 12 12 12 12 12 12 12 12 12
13 9 9 9 9 10 9 9 9 9 9 8 8 8 8 9 9 9 9 9 9 9 9 9 9 9 10 10 10 10 10 10 11 11 11 11 11 11 11 11 11 11 11 11 11 11 11 12 12
11 8 10 9 9 9 8 8 8 8 7 7 7 8 8 8 8 8 9 9 9 9 9 9 9 9 9 9 10 10 10 10 10 11 11 11 11 11 11 11 11 11 11 11 11 11 11 11 11
8 8 8 8 8 9 8 8 8 7 6 7 8 8 8 8 8 8 8 8 8 8 8 8 8 8 9 9 9 9 10 10 10 10 10 10 10 10 10 10 10 10 10 11 10 10 11 11 11
7 6 7 8 8 8 8 7 7 6 8 8 8 8 8 8 8 8 8 8 8 8 8 8 8 8 8 8 9 9 9 9 9 9 10 10 10 10 10 10 10 10 10 10 10 10 10 10 10
6 6 7 7 8 7 7 6 6 6 8 8 8 8 8 8 8 7 7 7 7 8 8 8 8 8 8 8 8 8 8 9 9 9 9 9 9 9 9 9 9 9 9 9 9 10 10 10 10
6 6 6 7 7 7 6 5 5 6 7 7 7 7 7 7 7 7 7 7 7 7 7 7 7 7 7 7 8 8 8 8 8 8 8 8 9 9 9 9 9 9 9 9 9 9 9 9 9
7 6 6 6 6 6 6 6 4 7 7 6 6 6 6 6 6 6 6 6 7 7 7 7 7 7 7 7 7 7 7 7 8 8 8 8 8 8 8 8 8 8 8 8 8 8 9 9 9
6 6 7 6 5 6 6 6 6 6 6 5 6 6 5 5 6 6 6 6 6 6 6 6 6 6 6 6 7 7 7 7 7 7 7 7 7 7 7 7 8 8 8 8 8 8 8 8 8
5 6 6 6 5 4 5 5 4 5 4 4 5 5 5 5 5 5 5 5 5 6 6 6 6 6 6 6 6 6 6 6 6 7 7 7 7 7 7 7 7 7 7 7 7 7 8 8 8
6 6 6 6 4 4 3 3 3 4 4 3 4 4 4 5 5 5 5 5 5 5 5 5 5 5 5 5 5 5 5 6 6 6 6 6 6 6 6 6 6 7 7 7 7 7 7 7 7
5 5 5 5 4 3 3 3 4 3 3 2 2 3 4 4 5 5 5 5 5 5 5 5 5 5 5 5 5 5 5 5 5 5 5 5 5 6 6 6 6 6 6 6 6 6 6 6 7
5 5 4 4 4 3 2 2 3 2 2 3 2 2 3 3 4 4 4 4 5 5 5 5 4 4 4 4 4 4 4 5 5 5 5 5 5 5 5 5 5 5 5 6 6 6 6 6 6
4 4 4 4 3 3 2 3 3 3 2 2 2 2 2 3 3 3 4 4 4 4 4 4 4 4 4 4 4 4 4 4 4 4 4 4 4 4 4 4 5 5 5 5 5 5 5 5 5
4 4 3 3 3 2 2 3 3 2 1 1 1 2 2 2 3 3 3 3 3 3 3 3 3 3 3 3 3 3 3 3 3 4 4 4 4 4 4 4 4 4 4 4 4 4 4 4 4
3 3 2 2 1 1 1 2 3 1 2 1 1 1 2 2 2 2 3 3 3 3 3 3 3 3 3 3 3 2 2 3 3 3 3 3 3 3 3 3 3 3 4 4 4 4 4 4 4
2 2 1 0 1 2 1 1 2 1 1 1 1 1 2 2 2 2 2 3 3 3 3 3 3 2 2 2 2 2 2 2 2 2 2 3 3 3 3 3 3 3 3 3 3 3 3 3 3
2 2 2 2 2 2 1 1 1 1 0 -0 -0 1 1 1 2 2 2 2 2 2 2 2 2 2 2 2 2 1 2 2 2 2 2 2 2 2 3 3 3 2 2 2 3 3 3 3 3
1 2 3 3 3 2 0 0 1 0 -0 -0 -0 0 1 1 1 1 1 2 2 2 2 2 2 2 2 1 1 1 1 1 1 1 1 1 1 2 2 2 2 2 2 2 2 2 2 2 2
1 0 1 1 -0 0 1 -1 -0 -0 -1 -1 -1 -1 -0 1 1 1 1 1 1 1 1 1 1 1 1 1 1 1 1 1 1 1 0 0 1 1 1 1 2 1 1 1 1 1 2 2 2
0 -1 -1 0 2 2 1 0 1 0 -0 -1 -2 -2 -1 0 0 1 1 1 1 1 1 1 1 0 0 0 0 0 0 0 -0 -0 -0 -0 0 0 0 1 1 1 1 1 1 1 1 1 1
-1 -1 -1 -1 -0 1 1 1 -0 -1 -1 -2 -2 -1 -1 -0 -0 -0 0 -0 -0 0 0 0 0 0 -0 -0 -0 -0 -0 -1 -1 -1 -1 -1 -1 -0 -0 -0 -0 0 0 0 0 0 0 0 0
-1 -1 -1 0 -0 -2 -1 1 -1 -2 -2 -2 -2 -1 -1 -1 -0 -0 -0 -1 -1 -1 -0 -0 -0 -1 -1 -1 -1 -1 -1 -1 -1 -1 -1 -1 -1 -1 -1 -1 -1 -1 -0 -0 -1 -0 -0 -0 -0

GEFSSGP_850_meantemp_324.txt.gz
Temperature
17 17 17 17 20 21 21 20 19 18 17 15 15 16 17 17 17 16 11 11 11 12 12 12 12 12 12 12 12 12 13 13 13 13 13 13 13 13 14 14 14 14 14 14 14 14 14 14 14
16 17 17 18 21 21 20 19 18 17 15 13 13 14 15 14 12 11 11 11 11 11 11 11 12 11 12 12 12 12 12 13 13 13 13 13 13 13 13 13 13 13 14 14 14 14 14 14 14
16 17 17 20 20 21 20 18 18 15 13 13 13 13 14 13 10 10 10 11 11 11 11 11 11 11 11 12 12 12 12 12 12 12 12 12 12 13 13 13 13 13 13 13 14 14 14 14 14
16 16 18 20 19 19 18 17 16 15 13 12 13 13 11 10 9 10 10 10 10 10 11 11 11 11 11 11 12 12 12 12 12 12 12 12 12 12 13 13 13 13 13 13 13 13 13 13 13
16 17 19 19 18 17 16 15 14 15 15 13 13 14 11 9 10 10 10 10 10 10 10 10 11 11 11 11 12 12 12 12 12 12 12 12 12 12 12 12 12 12 13 13 13 13 13 13 13
16 18 19 19 18 16 15 14 14 15 14 12 12 13 11 9 10 10 10 9 9 10 10 10 10 10 11 11 11 11 11 12 12 12 12 12 12 12 12 12 12 12 12 12 12 13 13 13 13
17 18 18 19 18 16 15 13 14 15 14 12 11 13 11 9 9 9 9 9 9 9 10 10 10 10 10 11 11 11 11 11 11 11 12 12 12 12 12 12 12 12 12 12 12 12 12 12 12
14 17 17 17 17 16 14 12 11 12 13 10 10 12 11 8 9 9 9 9 9 9 9 10 10 10 10 10 10 10 11 11 11 11 11 11 11 11 11 11 11 11 12 12 12 12 12 12 12
14 17 17 17 16 15 12 12 10 9 10 8 8 9 9 9 9 9 8 9 9 9 9 9 9 9 9 9 10 10 10 10 10 11 11 11 11 11 11 11 11 11 11 11 11 11 11 11 12
14 16 16 14 14 14 12 11 10 10 10 9 8 8 9 9 8 8 8 8 8 9 9 9 9 9 9 9 9 10 10 10 10 10 10 10 10 10 10 11 11 11 11 11 11 11 11 11 11
13 14 13 11 10 11 11 10 9 11 12 11 9 8 8 8 8 8 8 8 8 8 8 8 8 8 9 9 9 9 9 10 10 10 10 10 10 10 10 10 10 10 10 11 11 11 11 11 11
12 11 10 10 8 9 10 9 9 9 10 9 8 8 8 8 8 7 7 7 7 8 8 8 8 8 8 8 9 9 9 9 9 9 9 9 10 10 10 10 10 10 10 10 10 10 10 10 10
11 10 8 8 7 8 8 8 9 8 8 8 8 8 8 7 7 7 7 7 7 7 7 7 8 8 8 8 8 8 8 9 9 9 9 9 9 9 9 9 9 9 9 9 10 10 10 10 10
10 9 8 8 8 7 8 8 8 8 7 7 7 7 7 7 7 6 6 6 7 7 7 7 7 7 7 7 7 8 8 8 8 8 8 8 8 9 9 9 9 9 9 9 9 9 9 9 9
8 10 10 9 8 7 8 9 9 8 7 6 6 6 6 6 6 6 6 6 6 6 6 6 6 7 7 7 7 7 7 7 7 8 8 8 8 8 8 8 8 8 8 8 8 8 8 9 9
10 11 12 10 8 7 9 12 10 7 6 6 6 5 5 5 5 6 6 6 6 6 6 6 6 6 6 6 6 6 7 7 7 7 7 7 7 7 7 8 8 8 8 8 8 8 8 8 8
11 12 12 11 8 8 9 11 10 6 6 6 6 5 5 5 5 5 5 6 6 6 6 6 6 6 6 6 6 6 6 6 6 6 6 6 7 7 7 7 7 7 7 7 7 7 7 7 7
12 12 11 11 9 8 8 9 9 6 5 6 6 5 4 4 5 5 5 5 5 5 5 5 5 5 5 5 5 5 5 5 5 6 6 6 6 6 6 6 6 6 6 6 6 6 7 7 7
10 10 11 10 8 7 8 9 9 7 6 5 5 5 4 4 5 5 5 5 5 5 5 5 5 5 5 5 5 5 5 5 5 5 5 5 5 5 5 5 6 6 6 6 6 6 6 6 6
9 9 10 9 7 7 8 8 8 7 6 5 5 5 4 4 4 4 4 4 5 5 5 5 4 4 4 4 4 4 4 4 4 4 5 5 4 5 5 5 5 5 5 5 5 5 5 5 5
8 8 9 8 7 6 6 9 8 7 5 4 4 4 4 3 3 3 4 4 4 4 4 4 4 4 4 4 3 4 4 4 4 4 4 4 4 4 4 4 4 4 4 4 4 5 5 4 5
8 7 6 6 7 8 7 10 10 7 6 5 4 4 3 3 3 3 3 3 3 4 4 4 4 3 3 3 3 3 3 3 3 3 3 4 4 4 4 4 4 4 4 4 4 4 4 4 4
6 5 5 5 6 7 7 7 10 7 7 6 5 4 3 2 2 2 2 2 3 3 3 3 3 3 3 3 3 3 3 3 2 3 3 3 3 3 3 3 3 3 3 3 3 3 3 3 3
4 5 5 5 6 7 7 7 10 8 7 6 5 3 2 1 1 1 2 2 2 2 2 3 3 3 3 2 2 2 2 2 2 2 2 2 2 2 2 2 2 2 2 3 3 3 3 3 3
4 6 7 7 7 8 6 6 8 6 5 4 4 3 2 1 1 1 1 1 1 2 2 2 2 2 2 2 2 2 2 2 1 1 2 2 2 2 2 2 2 2 2 2 2 2 2 2 2
4 5 7 8 9 9 5 6 8 4 3 2 1 1 1 1 1 1 1 1 1 1 2 2 2 2 2 2 2 1 1 1 1 1 1 1 1 1 1 1 1 1 1 1 2 2 2 2 2
4 5 4 5 5 6 7 6 5 4 3 2 1 1 0 0 0 0 0 1 1 1 1 1 1 1 1 1 1 1 1 0 0 0 0 0 0 0 0 1 1 1 1 1 1 1 1 1 1
3 3 4 4 6 7 8 7 7 5 4 3 2 1 0 0 -0 -0 0 0 0 0 0 0 0 0 0 0 0 0 0 -0 -0 -0 -0 -0 -0 0 0 0 0 0 0 0 0 0 1 0 1
2 2 3 4 4 6 6 7 5 4 4 3 2 1 0 -0 -0 -0 -0 0 -0 -0 -0 -0 -0 -0 -0 -0 -0 -0 -0 -1 -1 -1 -1 -1 -1 -0 -0 -0 -0 -0 -0 -0 -0 -0 0 -0 0
1 2 3 4 3 3 5 6 3 2 2 1 0 -0 -0 -1 -1 -1 -0 -0 -1 -1 -1 -1 -1 -1 -1 -1 -1 -1 -1 -1 -1 -1 -1 -1 -1 -1 -1 -1 -1 -1 -1 -1 -1 -0 -0 -1 -1

GEFSSGP_850_meantemp_330.txt.gz
Temperature
17 17 17 17 17 18 19 21 22 21 20 19 19 19 18 17 16 14 12 12 12 12 13 13 13 13 13 13 13 13 13 13 13 13 13 13 13 13 13 13 14 14 14 14 14 14 14 14 14
17 17 17 18 18 18 19 21 20 19 19 18 18 18 17 15 13 12 11 11 11 12 12 13 13 12 12 12 12 13 13 13 13 13 13 13 13 13 13 13 13 14 14 14 14 14 14 14 14
17 17 17 18 18 19 20 20 19 18 18 18 17 16 16 13 12 11 11 11 11 11 12 12 12 12 12 12 12 12 13 13 13 13 13 13 13 13 13 13 13 13 14 14 14 14 14 14 14
16 17 18 18 18 19 20 19 18 17 17 17 17 15 13 12 11 11 11 11 11 11 12 12 12 12 12 12 12 12 12 12 12 12 12 12 12 13 13 13 13 13 13 13 13 13 13 13 13
16 17 17 17 18 19 19 19 19 18 17 16 16 15 12 11 11 11 11 11 10 11 11 11 11 12 12 12 12 12 12 12 12 12 12 12 12 12 12 13 13 13 13 13 13 13 13 13 13
16 18 17 17 19 19 19 18 18 18 17 16 16 15 11 11 11 11 10 10 10 10 11 11 11 11 11 12 12 12 12 12 12 12 12 12 12 12 12 12 12 12 12 12 12 12 13 13 13
16 16 17 18 18 18 18 18 17 17 16 15 15 14 11 10 10 10 10 10 10 10 10 11 11 11 11 11 11 11 12 12 12 12 12 12 12 12 12 12 12 12 12 12 12 12 12 12 12
16 16 17 18 18 18 17 17 16 16 15 14 14 13 11 10 10 10 9 9 9 9 10 10 10 10 11 11 11 11 11 11 11 11 11 11 11 11 11 11 11 11 11 12 12 12 12 12 12
16 15 15 17 17 16 16 15 14 14 13 12 12 11 10 10 10 9 9 9 9 9 9 9 10 10 10 10 10 10 11 11 11 11 11 11 11 11 11 11 11 11 11 11 11 11 11 11 11
15 14 15 15 15 15 15 14 13 13 12 11 11 10 10 10 9 9 9 9 9 9 9 9 9 9 10 10 10 10 10 10 10 10 10 11 11 10 10 10 11 11 11 11 11 11 11 11 11
15 14 14 14 14 14 14 13 13 13 12 12 11 9 9 9 9 8 8 8 8 9 9 9 9 9 9 9 9 10 10 10 10 10 10 10 10 10 10 10 10 11 11 11 11 11 10 10 10
14 14 14 13 12 13 13 13 12 12 11 11 11 10 9 9 8 8 8 8 8 8 8 8 8 8 9 9 9 9 9 9 9 9 10 10 10 10 10 10 10 10 10 10 10 10 10 10 10
13 13 12 12 11 11 11 11 11 10 10 10 10 10 9 9 8 8 8 7 7 7 8 8 8 8 8 8 8 9 9 9 9 9 9 9 9 9 9 10 10 10 10 10 10 10 10 10 10
13 12 12 12 11 11 10 10 10 10 10 9 9 9 8 8 8 7 7 7 7 7 7 7 7 8 8 8 8 8 8 8 8 8 9 9 9 9 9 9 9 9 9 9 9 9 9 9 9
12 11 11 11 11 11 10 9 9 10 10 9 9 8 8 7 7 7 7 7 7 7 7 7 7 7 7 7 7 7 8 8 8 8 8 8 8 8 8 8 8 9 9 9 9 9 9 9 9
12 11 10 11 11 10 9 9 10 10 9 9 8 8 7 7 6 6 6 6 6 6 7 7 7 7 7 7 7 7 7 7 7 7 7 7 7 7 7 8 8 8 8 8 8 8 8 8 8
11 11 11 10 10 10 9 9 10 10 9 9 8 8 7 6 6 6 6 6 6 6 6 6 6 6 6 6 6 6 6 6 6 6 7 7 7 7 7 7 7 7 7 7 7 7 7 8 8
10 11 12 11 10 10 9 8 8 9 9 9 8 8 7 7 6 6 6 5 5 5 6 6 6 6 6 6 6 6 6 6 6 6 6 6 6 6 6 6 7 6 6 7 7 7 7 7 7
10 11 10 11 10 9 9 8 8 8 8 8 8 7 7 7 6 6 5 5 5 5 5 5 5 5 5 5 5 5 5 5 5 5 5 5 6 6 6 6 6 6 6 6 6 6 6 6 6
10 9 10 10 10 9 8 8 8 8 7 8 7 7 7 6 6 6 5 5 5 5 5 5 5 5 5 5 5 5 5 5 5 5 5 5 5 5 5 5 5 5 5 5 5 5 5 5 5
9 8 8 8 8 8 7 7 8 8 8 8 7 7 7 6 6 5 5 4 4 4 4 4 4 4 4 4 4 4 4 4 4 4 4 4 4 5 5 5 5 5 5 5 5 5 5 5 5
8 7 7 7 6 6 8 6 7 7 7 6 6 7 6 6 5 5 4 4 4 4 4 4 4 4 4 4 4 4 4 4 4 4 4 4 4 4 4 4 4 4 4 4 4 4 4 4 4
6 6 6 6 6 5 7 6 6 7 6 6 5 6 5 5 5 4 4 4 3 3 3 3 3 3 3 3 4 3 3 3 3 3 3 3 3 3 3 3 3 3 3 3 3 3 3 3 3
6 6 6 6 5 5 6 6 6 6 6 6 5 5 5 4 4 4 3 3 3 3 3 3 3 3 3 3 3 3 3 3 3 3 3 3 3 3 3 3 3 3 3 3 3 3 3 3 3
5 4 5 5 5 5 7 6 5 6 6 5 5 5 4 4 3 3 2 2 2 2 2 2 2 2 2 2 2 2 3 3 2 2 2 2 2 2 3 2 2 2 2 2 2 2 2 2 2
4 5 4 5 6 6 5 5 5 5 5 5 4 4 4 3 3 2 2 2 2 2 2 2 2 2 2 2 2 2 2 2 2 2 2 2 2 2 2 2 2 2 2 2 2 2 2 2 2
4 4 4 4 4 4 5 6 5 4 3 3 3 3 3 3 2 2 2 1 1 1 1 1 1 1 1 1 1 1 1 1 1 1 1 1 1 1 1 1 1 1 1 1 1 1 1 1 2
3 3 3 3 4 4 5 6 4 3 3 2 2 2 2 2 2 1 1 1 1 1 0 1 1 1 1 1 0 0 0 1 1 1 1 1 1 1 1 1 1 1 1 1 1 1 1 1 1
2 2 3 3 3 3 4 4 4 3 2 2 1 2 1 1 1 1 0 0 0 0 -0 -0 -0 -0 -0 -0 -0 -0 -0 -0 -0 -0 0 0 0 0 0 0 0 0 0 0 0 0 1 0 1
2 2 2 2 2 2 2 2 2 1 1 1 1 1 1 1 0 -0 -0 -0 -0 -0 -0 -1 -1 -1 -1 -1 -1 -1 -1 -1 -1 -1 -0 -0 -0 -0 -0 -0 -0 -0 -0 -0 -0 -0 -0 -0 -0